QFA64 FAOR-YSSY

Flight info

Callsign QFA64
Flight time 11h 44m
Altitude 35000
Route APDAK1B APDAK UQ48 AVAVA UZ8 ETMAL DCT OKLEP UQ5 GEVIS DCT 34S040E 40S050E/N0485F370 46S060E 48S070E 50S080E 50S090E 50S100E/N0491F390 50S110E 48S120E 44S130E 40S140E/N0476F410 DCT ML H129 DOSEL Y59 RIVET
Aircraft B789/H-SDE1E2E3FGHIJ2J3J4J5M1RWXY/LB1D1

Departure

Time 2026-04-24 15:27
Airport O.R. Tambo International Airport (FAOR)

Arrival

Time 2026-04-25 03:12
Airport Sydney Kingsford Smith International Airport (YSSY)
Time Latitude Longitude Altitude Speed Heading
2026-04-24 14:45 -26.13017 28.23364 5552 ft 0 kts 322°
2026-04-24 15:12 -26.13055 28.23397 5552 ft 4 kts 327°
2026-04-24 15:12 -26.13078 28.23410 5550 ft 2 kts 345°
2026-04-24 15:13 -26.13100 28.23416 5551 ft 4 kts 353°
2026-04-24 15:13 -26.13127 28.23417 5551 ft 4 kts
2026-04-24 15:13 -26.13154 28.23413 5552 ft 4 kts 12°
2026-04-24 15:13 -26.13179 28.23407 5553 ft 2 kts
2026-04-24 15:14 -26.13181 28.23407 5553 ft 0 kts
2026-04-24 15:16 -26.13177 28.23408 5553 ft 2 kts
2026-04-24 15:17 -26.13152 28.23413 5552 ft 5 kts 15°
2026-04-24 15:17 -26.13117 28.23440 5554 ft 6 kts 59°
2026-04-24 15:17 -26.13113 28.23496 5553 ft 9 kts 96°
2026-04-24 15:17 -26.13124 28.23577 5554 ft 13 kts 98°
2026-04-24 15:18 -26.13136 28.23673 5552 ft 7 kts 104°
2026-04-24 15:18 -26.13143 28.23683 5550 ft 1 kts 143°
2026-04-24 15:18 -26.13161 28.23688 5552 ft 4 kts 176°
2026-04-24 15:18 -26.13187 28.23682 5551 ft 5 kts 193°
2026-04-24 15:19 -26.13226 28.23672 5552 ft 5 kts 194°
2026-04-24 15:19 -26.13260 28.23661 5551 ft 5 kts 195°
2026-04-24 15:19 -26.13287 28.23653 5551 ft 4 kts 196°
2026-04-24 15:19 -26.13308 28.23647 5553 ft 4 kts 196°
2026-04-24 15:20 -26.13361 28.23630 5551 ft 12 kts 196°
2026-04-24 15:20 -26.13463 28.23597 5553 ft 19 kts 196°
2026-04-24 15:20 -26.13612 28.23551 5556 ft 24 kts 195°
2026-04-24 15:20 -26.13762 28.23508 5560 ft 21 kts 193°
2026-04-24 15:21 -26.13892 28.23469 5563 ft 19 kts 196°
2026-04-24 15:21 -26.14014 28.23429 5565 ft 18 kts 196°
2026-04-24 15:21 -26.14139 28.23390 5566 ft 19 kts 196°
2026-04-24 15:21 -26.14262 28.23351 5568 ft 18 kts 195°
2026-04-24 15:22 -26.14324 28.23331 5569 ft 0 kts 195°
2026-04-24 15:23 -26.14340 28.23327 5569 ft 5 kts 195°
2026-04-24 15:23 -26.14463 28.23288 5569 ft 14 kts 195°
2026-04-24 15:23 -26.14565 28.23291 5569 ft 14 kts 156°
2026-04-24 15:24 -26.14617 28.23402 5568 ft 5 kts 105°
2026-04-24 15:25 -26.14614 28.23441 5567 ft 0 kts 55°
2026-04-24 15:25 -26.14590 28.23451 5567 ft 0 kts 14°
2026-04-24 15:26 -26.14575 28.23455 5567 ft 11 kts 14°
2026-04-24 15:27 -26.12791 28.24009 5549 ft 159 kts 15°
2026-04-24 15:27 -26.09086 28.25137 6200 ft 202 kts 17°
2026-04-24 15:28 -26.03590 28.27768 7368 ft 271 kts 57°
2026-04-24 15:29 -26.03469 28.31999 8601 ft 293 kts 106°
2026-04-24 15:30 -26.05641 28.38622 9001 ft 303 kts 106°
2026-04-24 15:31 -26.08321 28.47529 10618 ft 318 kts 108°
2026-04-24 15:32 -26.11594 28.57782 12439 ft 366 kts 123°
2026-04-24 15:33 -26.18912 28.65898 14997 ft 380 kts 136°
2026-04-24 15:33 -26.24710 28.72134 16742 ft 391 kts 137°
2026-04-24 15:34 -26.28681 28.76383 17883 ft 398 kts 137°
2026-04-24 15:35 -26.34748 28.82888 19405 ft 410 kts 137°
2026-04-24 15:35 -26.38889 28.87336 20321 ft 417 kts 137°
2026-04-24 15:35 -26.40979 28.89584 20753 ft 421 kts 137°
2026-04-24 15:36 -26.43091 28.91855 21179 ft 425 kts 137°
2026-04-24 15:36 -26.47399 28.96492 22045 ft 432 kts 137°
2026-04-24 15:36 -26.49549 28.98808 22464 ft 436 kts 137°
2026-04-24 15:37 -26.51745 29.01176 22857 ft 439 kts 137°
2026-04-24 15:37 -26.53943 29.03546 23258 ft 443 kts 138°
2026-04-24 15:37 -26.55429 29.05150 23525 ft 445 kts 137°
2026-04-24 15:37 -26.58385 29.08404 24015 ft 450 kts 136°
2026-04-24 15:38 -26.60604 29.10891 24364 ft 452 kts 137°
2026-04-24 15:38 -26.62856 29.13387 24699 ft 455 kts 137°
2026-04-24 15:38 -26.65096 29.15851 25024 ft 457 kts 137°
2026-04-24 15:38 -26.67353 29.18347 25339 ft 460 kts 136°
2026-04-24 15:39 -26.69638 29.20890 25667 ft 462 kts 136°
2026-04-24 15:39 -26.71915 29.23419 25953 ft 465 kts 136°
2026-04-24 15:39 -26.74229 29.25984 26290 ft 467 kts 136°
2026-04-24 15:39 -26.76525 29.28532 26593 ft 469 kts 136°
2026-04-24 15:40 -26.78867 29.31137 26908 ft 472 kts 136°
2026-04-24 15:40 -26.81170 29.33701 27203 ft 474 kts 136°
2026-04-24 15:40 -26.83535 29.36331 27528 ft 476 kts 136°
2026-04-24 15:40 -26.85874 29.38935 27819 ft 479 kts 136°
2026-04-24 15:41 -26.88260 29.41594 28134 ft 481 kts 136°
2026-04-24 15:41 -26.90614 29.44219 28419 ft 483 kts 136°
2026-04-24 15:41 -26.92862 29.47060 28679 ft 486 kts 129°
2026-04-24 15:41 -26.94952 29.50007 28936 ft 488 kts 128°
2026-04-24 15:42 -26.97072 29.53020 29216 ft 491 kts 129°
2026-04-24 15:42 -26.99192 29.55995 29481 ft 493 kts 129°
2026-04-24 15:42 -27.01349 29.59004 29744 ft 496 kts 129°
2026-04-24 15:42 -27.02792 29.61028 29931 ft 497 kts 129°
2026-04-24 15:43 -27.05672 29.65094 30264 ft 501 kts 129°
2026-04-24 15:43 -27.07849 29.68164 30495 ft 503 kts 129°
2026-04-24 15:43 -27.09311 29.70219 30659 ft 504 kts 129°
2026-04-24 15:43 -27.12206 29.74295 30963 ft 506 kts 129°
2026-04-24 15:44 -27.13669 29.76361 31108 ft 507 kts 129°
2026-04-24 15:44 -27.15879 29.79486 31333 ft 509 kts 129°
2026-04-24 15:44 -27.18096 29.82617 31544 ft 511 kts 129°
2026-04-24 15:44 -27.20308 29.85741 31768 ft 512 kts 129°
2026-04-24 15:45 -27.22502 29.88846 31979 ft 514 kts 128°
2026-04-24 15:45 -27.24727 29.91997 32199 ft 515 kts 128°
2026-04-24 15:45 -27.26958 29.95159 32387 ft 517 kts 128°
2026-04-24 15:45 -27.29201 29.98338 32596 ft 518 kts 128°
2026-04-24 15:46 -27.31441 30.01516 32802 ft 520 kts 128°
2026-04-24 15:46 -27.33701 30.04725 33010 ft 521 kts 128°
2026-04-24 15:46 -27.35951 30.07922 33206 ft 523 kts 128°
2026-04-24 15:46 -27.38192 30.11108 33383 ft 524 kts 128°
2026-04-24 15:47 -27.40468 30.14347 33577 ft 525 kts 128°
2026-04-24 15:47 -27.42716 30.17548 33755 ft 527 kts 128°
2026-04-24 15:47 -27.45002 30.20806 33932 ft 528 kts 128°
2026-04-24 15:47 -27.47270 30.24040 34113 ft 529 kts 128°
2026-04-24 15:48 -27.49564 30.27314 34286 ft 530 kts 128°
2026-04-24 15:48 -27.51836 30.30559 34487 ft 530 kts 128°
2026-04-24 15:48 -27.54129 30.33836 34687 ft 529 kts 128°
2026-04-24 15:48 -27.56390 30.37070 34869 ft 529 kts 128°
2026-04-24 15:49 -27.58681 30.40351 35028 ft 530 kts 128°
2026-04-24 15:49 -27.60946 30.43607 35206 ft 530 kts 128°
2026-04-24 15:49 -27.63225 30.46889 35373 ft 530 kts 128°
2026-04-24 15:49 -27.65484 30.50140 35537 ft 531 kts 128°
2026-04-24 15:50 -27.67779 30.53441 35679 ft 532 kts 128°
2026-04-24 15:50 -27.70049 30.56711 35869 ft 532 kts 128°
2026-04-24 15:50 -27.72334 30.60010 36033 ft 532 kts 128°
2026-04-24 15:50 -27.74601 30.63282 36185 ft 533 kts 128°
2026-04-24 15:51 -27.76895 30.66594 36355 ft 532 kts 128°
2026-04-24 15:51 -27.79160 30.69867 36524 ft 532 kts 128°
2026-04-24 15:51 -27.81459 30.73193 36661 ft 533 kts 128°
2026-04-24 15:51 -27.83719 30.76466 36833 ft 532 kts 128°
2026-04-24 15:52 -27.86005 30.79777 36978 ft 533 kts 128°
2026-04-24 15:52 -27.88267 30.83057 37123 ft 532 kts 128°
2026-04-24 15:52 -27.92820 30.89666 37359 ft 533 kts 128°
2026-04-24 15:53 -27.95110 30.92994 37486 ft 533 kts 128°
2026-04-24 15:53 -27.97378 30.96292 37622 ft 534 kts 128°
2026-04-24 15:53 -27.99671 30.99630 37741 ft 534 kts 128°
2026-04-24 15:53 -28.01931 31.02922 37884 ft 534 kts 128°
2026-04-24 15:54 -28.04219 31.06257 38006 ft 534 kts 128°
2026-04-24 15:54 -28.06482 31.09557 38133 ft 534 kts 129°
2026-04-24 15:54 -28.08781 31.12915 38262 ft 534 kts 129°
2026-04-24 15:54 -28.11032 31.16203 38397 ft 534 kts 129°
2026-04-24 15:55 -28.13320 31.19549 38519 ft 534 kts 129°
2026-04-24 15:55 -28.15600 31.22886 38644 ft 534 kts 129°
2026-04-24 15:55 -28.17863 31.26200 38754 ft 535 kts 129°
2026-04-24 15:55 -28.20148 31.29549 38855 ft 535 kts 129°
2026-04-24 15:56 -28.22404 31.32858 38974 ft 535 kts 129°
2026-04-24 15:56 -28.24685 31.36206 39097 ft 534 kts 129°
2026-04-24 15:56 -28.29218 31.42868 39244 ft 536 kts 129°
2026-04-24 15:57 -28.33763 31.49558 39236 ft 534 kts 129°
2026-04-24 15:57 -28.38291 31.56235 39233 ft 531 kts 129°
2026-04-24 15:58 -28.42801 31.62893 39234 ft 529 kts 129°
2026-04-24 15:58 -28.47285 31.69526 39233 ft 529 kts 129°
2026-04-24 15:59 -28.51748 31.76135 39227 ft 528 kts 129°
2026-04-24 15:59 -28.56219 31.82769 39222 ft 528 kts 128°
2026-04-24 16:00 -28.60699 31.89426 39224 ft 528 kts 128°
2026-04-24 16:00 -28.65158 31.96062 39222 ft 528 kts 128°
2026-04-24 16:01 -28.69603 32.02688 39225 ft 528 kts 128°
2026-04-24 16:01 -28.74050 32.09376 39225 ft 528 kts 123°
2026-04-24 16:02 -28.77812 32.16524 39233 ft 529 kts 121°
2026-04-24 16:02 -28.81559 32.23728 39230 ft 529 kts 121°
2026-04-24 16:03 -28.85314 32.30937 39232 ft 528 kts 121°
2026-04-24 16:03 -28.89060 32.38165 39226 ft 530 kts 121°
2026-04-24 16:04 -28.92812 32.45396 39230 ft 530 kts 121°
2026-04-24 16:04 -28.96567 32.52661 39230 ft 531 kts 121°
2026-04-24 16:05 -29.02190 32.63554 39231 ft 532 kts 121°
2026-04-24 16:06 -29.07810 32.74471 39229 ft 532 kts 121°
2026-04-24 16:07 -29.13430 32.85419 39231 ft 532 kts 121°
2026-04-24 16:07 -29.19031 32.96358 39230 ft 532 kts 121°
2026-04-24 16:08 -29.24621 33.07305 39226 ft 531 kts 120°
2026-04-24 16:09 -29.30203 33.18266 39230 ft 531 kts 120°
2026-04-24 16:09 -29.33904 33.25551 39233 ft 531 kts 120°
2026-04-24 16:11 -29.43191 33.43887 39242 ft 531 kts 120°
2026-04-24 16:11 -29.46874 33.51182 39247 ft 532 kts 120°
2026-04-24 16:12 -29.52432 33.62216 39245 ft 533 kts 120°
2026-04-24 16:13 -29.57982 33.73266 39245 ft 534 kts 120°
2026-04-24 16:14 -29.65406 33.88091 39249 ft 534 kts 120°
2026-04-24 16:14 -29.71404 33.98706 39270 ft 529 kts 134°
2026-04-24 16:15 -29.78795 34.08272 39251 ft 532 kts 133°
2026-04-24 16:16 -29.86126 34.17839 39257 ft 532 kts 133°
2026-04-24 16:17 -29.98366 34.33844 39256 ft 533 kts 133°
2026-04-24 16:18 -30.08156 34.46695 39257 ft 534 kts 133°
2026-04-24 16:19 -30.15517 34.56384 39267 ft 533 kts 133°
2026-04-24 16:20 -30.22837 34.66043 39268 ft 534 kts 133°
2026-04-24 16:20 -30.30175 34.75747 39271 ft 535 kts 133°
2026-04-24 16:21 -30.37526 34.85495 39277 ft 536 kts 133°
2026-04-24 16:22 -30.42411 34.91986 39278 ft 537 kts 133°
2026-04-24 16:22 -30.49758 35.01768 39277 ft 537 kts 133°
2026-04-24 16:23 -30.54644 35.08286 39279 ft 537 kts 133°
2026-04-24 16:24 -30.61988 35.18105 39283 ft 537 kts 133°
2026-04-24 16:24 -30.66886 35.24668 39282 ft 537 kts 133°
2026-04-24 16:25 -30.71770 35.31223 39283 ft 538 kts 133°
2026-04-24 16:25 -30.76657 35.37793 39286 ft 538 kts 133°
2026-04-24 16:26 -30.83992 35.47676 39287 ft 538 kts 133°
2026-04-24 16:26 -30.88830 35.54210 39284 ft 520 kts 132°
2026-04-24 16:27 -30.91148 35.57344 39273 ft 514 kts 132°
2026-04-24 16:27 -30.95814 35.63653 39283 ft 517 kts 132°
2026-04-24 16:28 -31.00526 35.70043 39292 ft 521 kts 132°
2026-04-24 16:28 -31.07610 35.79666 39302 ft 523 kts 132°
2026-04-24 16:29 -31.12362 35.86136 39299 ft 523 kts 132°
2026-04-24 16:30 -31.21794 35.99008 39303 ft 523 kts 132°
2026-04-24 16:30 -31.26508 36.05458 39305 ft 523 kts 132°
2026-04-24 16:31 -31.31250 36.11956 39304 ft 523 kts 132°
2026-04-24 16:31 -31.35966 36.18430 39310 ft 523 kts 132°
2026-04-24 16:32 -31.40667 36.24895 39311 ft 524 kts 132°
2026-04-24 16:32 -31.45406 36.31422 39313 ft 524 kts 132°
2026-04-24 16:33 -31.50106 36.37908 39316 ft 525 kts 132°
2026-04-24 16:33 -31.54815 36.44416 39316 ft 525 kts 132°
2026-04-24 16:34 -31.59550 36.50972 39311 ft 526 kts 132°
2026-04-24 16:34 -31.64254 36.57496 39314 ft 526 kts 132°
2026-04-24 16:35 -31.68968 36.64046 39315 ft 526 kts 132°
2026-04-24 16:35 -31.73706 36.70639 39318 ft 527 kts 132°
2026-04-24 16:36 -31.78407 36.77193 39320 ft 527 kts 132°
2026-04-24 16:36 -31.83120 36.83775 39320 ft 527 kts 132°
2026-04-24 16:37 -31.87832 36.90367 39328 ft 527 kts 132°
2026-04-24 16:37 -31.92556 36.96988 39317 ft 527 kts 132°
2026-04-24 16:38 -31.97244 37.03569 39316 ft 527 kts 132°
2026-04-24 16:38 -32.01966 37.10210 39321 ft 527 kts 132°
2026-04-24 16:39 -32.06669 37.16836 39327 ft 527 kts 132°
2026-04-24 16:39 -32.11370 37.23471 39332 ft 527 kts 132°
2026-04-24 16:40 -32.16058 37.30098 39332 ft 527 kts 132°
2026-04-24 16:40 -32.19976 37.35647 39337 ft 527 kts 132°
2026-04-24 16:41 -32.24658 37.42288 39341 ft 527 kts 132°
2026-04-24 16:41 -32.30125 37.50057 39341 ft 528 kts 132°
2026-04-24 16:42 -32.34042 37.55634 39347 ft 528 kts 132°
2026-04-24 16:42 -32.38727 37.62315 39341 ft 528 kts 132°
2026-04-24 16:43 -32.43424 37.69025 39348 ft 528 kts 132°
2026-04-24 16:43 -32.48862 37.76808 39348 ft 528 kts 132°
2026-04-24 16:44 -32.52769 37.82411 39352 ft 529 kts 132°
2026-04-24 16:44 -32.57461 37.89150 39353 ft 529 kts 132°
2026-04-24 16:45 -32.62123 37.95859 39357 ft 529 kts 132°
2026-04-24 16:45 -32.66813 38.02619 39351 ft 529 kts 132°
2026-04-24 16:46 -32.71469 38.09343 39351 ft 529 kts 132°
2026-04-24 16:46 -32.76155 38.16123 39360 ft 529 kts 132°
2026-04-24 16:47 -32.80799 38.22853 39363 ft 529 kts 132°
2026-04-24 16:47 -32.85449 38.29606 39361 ft 529 kts 132°
2026-04-24 16:48 -32.90096 38.36365 39358 ft 529 kts 132°
2026-04-24 16:48 -32.94759 38.43162 39369 ft 529 kts 132°
2026-04-24 16:49 -32.99427 38.49977 39364 ft 529 kts 132°
2026-04-24 16:49 -33.04052 38.56744 39371 ft 529 kts 132°
2026-04-24 16:50 -33.08704 38.63560 39374 ft 529 kts 132°
2026-04-24 16:50 -33.13323 38.70342 39365 ft 529 kts 132°
2026-04-24 16:51 -33.17949 38.77147 39375 ft 530 kts 133°
2026-04-24 16:51 -33.22606 38.84009 39377 ft 530 kts 133°
2026-04-24 16:52 -33.27231 38.90839 39365 ft 529 kts 133°
2026-04-24 16:52 -33.31841 38.97657 39368 ft 530 kts 133°
2026-04-24 16:53 -33.36485 39.04539 39376 ft 530 kts 133°
2026-04-24 16:53 -33.41089 39.11375 39381 ft 529 kts 133°
2026-04-24 16:54 -33.45720 39.18263 39380 ft 530 kts 133°
2026-04-24 16:54 -33.50308 39.25102 39382 ft 530 kts 133°
2026-04-24 16:55 -33.54932 39.32006 39382 ft 530 kts 133°
2026-04-24 16:55 -33.59527 39.38880 39389 ft 529 kts 133°
2026-04-24 16:56 -33.64130 39.45779 39391 ft 529 kts 133°
2026-04-24 16:56 -33.68710 39.52657 39389 ft 528 kts 133°
2026-04-24 16:57 -33.73294 39.59553 39394 ft 528 kts 133°
2026-04-24 16:57 -33.77856 39.66430 39397 ft 527 kts 133°
2026-04-24 16:58 -33.82432 39.73341 39398 ft 526 kts 133°
2026-04-24 16:58 -33.86982 39.80225 39393 ft 526 kts 133°
2026-04-24 16:59 -33.91521 39.87107 39400 ft 526 kts 133°
2026-04-24 17:00 -33.98308 39.97422 39398 ft 524 kts 133°
2026-04-24 17:00 -34.05270 40.07613 39403 ft 525 kts 134°
2026-04-24 17:01 -34.12273 40.17753 39404 ft 524 kts 135°
2026-04-24 17:02 -34.19216 40.27884 39408 ft 524 kts 135°
2026-04-24 17:02 -34.23886 40.34674 39407 ft 523 kts 135°
2026-04-24 17:03 -34.30799 40.44784 39418 ft 521 kts 135°
2026-04-24 17:04 -34.35424 40.51558 39412 ft 520 kts 135°
2026-04-24 17:04 -34.42311 40.61669 39418 ft 521 kts 135°
2026-04-24 17:05 -34.46937 40.68480 39423 ft 521 kts 135°
2026-04-24 17:06 -34.53832 40.78650 39425 ft 520 kts 135°
2026-04-24 17:06 -34.60711 40.88828 39423 ft 521 kts 135°
2026-04-24 17:07 -34.65277 40.95600 39418 ft 520 kts 134°
2026-04-24 17:08 -34.74441 41.09231 39424 ft 519 kts 134°
2026-04-24 17:08 -34.78979 41.16000 39426 ft 519 kts 134°
2026-04-24 17:09 -34.88091 41.29632 39433 ft 519 kts 134°
2026-04-24 17:10 -34.97190 41.43297 39435 ft 518 kts 134°
2026-04-24 17:12 -35.15282 41.70629 39439 ft 517 kts 134°
2026-04-24 18:54 -43.86095 56.03044 39324 ft 488 kts 132°
2026-04-24 18:55 -43.92445 56.14071 39315 ft 487 kts 132°
2026-04-24 18:56 -43.96657 56.21410 39310 ft 487 kts 132°
2026-04-24 18:56 -44.00893 56.28808 39306 ft 487 kts 132°
2026-04-24 18:57 -44.05075 56.36130 39304 ft 487 kts 132°
2026-04-24 18:57 -44.09287 56.43524 39302 ft 487 kts 132°
2026-04-24 18:58 -44.13480 56.50903 39297 ft 486 kts 132°
2026-04-24 18:58 -44.17650 56.58260 39296 ft 486 kts 132°
2026-04-24 18:59 -44.21844 56.65678 39292 ft 486 kts 132°
2026-04-24 18:59 -44.26016 56.73078 39284 ft 487 kts 132°
2026-04-24 19:00 -44.30218 56.80548 39280 ft 487 kts 131°
2026-04-24 19:00 -44.34387 56.87980 39280 ft 487 kts 131°
2026-04-24 19:01 -44.38550 56.95420 39277 ft 487 kts 131°
2026-04-24 19:01 -44.42731 57.02912 39270 ft 487 kts 131°
2026-04-24 19:02 -44.46175 57.09098 39271 ft 487 kts 131°
2026-04-24 19:02 -44.51046 57.17870 39257 ft 487 kts 131°
2026-04-24 19:03 -44.55180 57.25333 39258 ft 487 kts 131°
2026-04-24 19:03 -44.59329 57.32846 39246 ft 487 kts 131°
2026-04-24 19:04 -44.63452 57.40331 39249 ft 486 kts 131°
2026-04-24 19:04 -44.67610 57.47900 39248 ft 486 kts 131°
2026-04-24 19:05 -44.71718 57.55396 39241 ft 486 kts 131°
2026-04-24 19:05 -44.75843 57.62943 39245 ft 486 kts 131°
2026-04-24 19:06 -44.79951 57.70479 39235 ft 487 kts 131°
2026-04-24 19:06 -44.84067 57.78050 39234 ft 486 kts 131°
2026-04-24 19:07 -44.88185 57.85644 39227 ft 486 kts 131°
2026-04-24 19:07 -44.91580 57.91920 39224 ft 486 kts 131°
2026-04-24 19:08 -44.96355 58.00771 39220 ft 486 kts 131°
2026-04-24 19:08 -45.00456 58.08393 39212 ft 486 kts 131°
2026-04-24 19:09 -45.04526 58.15979 39209 ft 487 kts 131°
2026-04-24 19:09 -45.08633 58.23656 39208 ft 487 kts 131°
2026-04-24 19:10 -45.12688 58.31253 39204 ft 486 kts 131°
2026-04-24 19:10 -45.16776 58.38935 39197 ft 487 kts 131°
2026-04-24 19:11 -45.20836 58.46583 39189 ft 487 kts 131°
2026-04-24 19:11 -45.24909 58.54277 39188 ft 487 kts 131°
2026-04-24 19:12 -45.28953 58.61937 39186 ft 487 kts 131°
2026-04-24 19:12 -45.33006 58.69634 39180 ft 487 kts 131°
2026-04-24 19:13 -45.36389 58.76075 39178 ft 487 kts 131°
2026-04-24 19:13 -45.41111 58.85090 39167 ft 487 kts 131°
2026-04-24 19:14 -45.45143 58.92811 39165 ft 487 kts 131°
2026-04-24 19:14 -45.49168 59.00538 39168 ft 487 kts 131°
2026-04-24 19:15 -45.53230 59.08358 39151 ft 488 kts 131°
2026-04-24 19:15 -45.57248 59.16115 39156 ft 489 kts 131°
2026-04-24 19:16 -45.63297 59.27833 39142 ft 490 kts 131°
2026-04-24 19:16 -45.67348 59.35709 39138 ft 490 kts 131°
2026-04-24 19:17 -45.71363 59.43536 39136 ft 490 kts 131°
2026-04-24 19:17 -45.75403 59.51432 39130 ft 491 kts 131°
2026-04-24 19:18 -45.79413 59.59294 39121 ft 491 kts 131°
2026-04-24 19:18 -45.83436 59.67201 39121 ft 491 kts 131°
2026-04-24 19:19 -45.87445 59.75103 39111 ft 491 kts 131°
2026-04-24 19:19 -45.91479 59.83076 39111 ft 491 kts 131°
2026-04-24 19:20 -45.95477 59.91003 39090 ft 491 kts 131°
2026-04-24 19:20 -45.99410 59.98991 39112 ft 495 kts 123°
2026-04-24 19:21 -46.00891 60.03507 39108 ft 502 kts 112°
2026-04-24 19:21 -46.02076 60.08249 39084 ft 504 kts 114°
2026-04-24 19:21 -46.04465 60.17743 39092 ft 505 kts 114°
2026-04-24 19:22 -46.06831 60.27228 39088 ft 505 kts 114°
2026-04-24 19:22 -46.09207 60.36769 39084 ft 505 kts 114°
2026-04-24 19:23 -46.11561 60.46273 39076 ft 505 kts 114°
2026-04-24 19:23 -46.13917 60.55816 39073 ft 505 kts 114°
2026-04-24 19:24 -46.16256 60.65338 39073 ft 505 kts 114°
2026-04-24 19:24 -46.18601 60.74920 39068 ft 506 kts 114°
2026-04-24 19:25 -46.20932 60.84490 39067 ft 506 kts 113°
2026-04-24 19:25 -46.23256 60.94067 39054 ft 507 kts 113°
2026-04-24 19:26 -46.25576 61.03674 39055 ft 507 kts 113°
2026-04-24 19:26 -46.27898 61.13328 39046 ft 507 kts 113°
2026-04-24 19:27 -46.30204 61.22957 39047 ft 507 kts 113°
2026-04-24 19:27 -46.32496 61.32571 39039 ft 508 kts 113°
2026-04-24 19:28 -46.34788 61.42227 39036 ft 509 kts 113°
2026-04-24 19:28 -46.37085 61.51945 39031 ft 509 kts 113°
2026-04-24 19:29 -46.40512 61.66525 39025 ft 510 kts 113°
2026-04-24 19:30 -46.42780 61.76227 39025 ft 511 kts 112°
2026-04-24 19:30 -46.45062 61.86034 39020 ft 512 kts 112°
2026-04-24 19:31 -46.47321 61.95785 38998 ft 512 kts 112°
2026-04-24 19:31 -46.49576 62.05565 39004 ft 513 kts 112°
2026-04-24 19:32 -46.51839 62.15425 39000 ft 513 kts 112°
2026-04-24 19:32 -46.54082 62.25240 39000 ft 514 kts 112°
2026-04-24 19:33 -46.56316 62.35059 38998 ft 514 kts 112°
2026-04-24 19:33 -46.58547 62.44914 38992 ft 515 kts 112°
2026-04-24 19:34 -46.60786 62.54849 38987 ft 515 kts 112°
2026-04-24 19:34 -46.63006 62.64747 38985 ft 516 kts 112°
2026-04-24 19:35 -46.65216 62.74645 38980 ft 516 kts 112°
2026-04-24 19:35 -46.67430 62.84606 38971 ft 516 kts 112°
2026-04-24 19:36 -46.69613 62.94478 38971 ft 516 kts 112°
2026-04-24 19:36 -46.71816 63.04483 38966 ft 517 kts 112°
2026-04-24 19:37 -46.73995 63.14428 38961 ft 517 kts 111°
2026-04-24 19:37 -46.76185 63.24473 38958 ft 518 kts 111°
2026-04-24 19:38 -46.78349 63.34443 38951 ft 518 kts 111°
2026-04-24 19:38 -46.80514 63.44471 38944 ft 519 kts 111°
2026-04-24 19:39 -46.82681 63.54553 38944 ft 519 kts 111°
2026-04-24 19:39 -46.84824 63.64575 38939 ft 519 kts 111°
2026-04-24 19:40 -46.86974 63.74679 38937 ft 519 kts 111°
2026-04-24 19:40 -46.89104 63.84734 38933 ft 519 kts 111°
2026-04-24 19:41 -46.91227 63.94811 38930 ft 520 kts 111°
2026-04-24 19:41 -46.93352 64.04945 38923 ft 520 kts 111°
2026-04-24 19:42 -46.95454 64.15022 38919 ft 520 kts 111°
2026-04-24 19:42 -46.97553 64.25135 38913 ft 521 kts 111°
2026-04-24 19:43 -46.99659 64.35330 38909 ft 521 kts 110°
2026-04-24 19:43 -47.01745 64.45480 38904 ft 522 kts 110°
2026-04-24 19:44 -47.03822 64.55639 38891 ft 523 kts 110°
2026-04-24 19:44 -47.05905 64.65881 38898 ft 523 kts 110°
2026-04-24 19:45 -47.07970 64.76083 38895 ft 523 kts 110°
2026-04-24 19:45 -47.10039 64.86364 38885 ft 524 kts 110°
2026-04-24 19:46 -47.12087 64.96592 38884 ft 525 kts 110°
2026-04-24 19:46 -47.14140 65.06896 38879 ft 524 kts 110°
2026-04-24 19:47 -47.16173 65.17157 38875 ft 524 kts 110°
2026-04-24 19:47 -47.18195 65.27412 38866 ft 525 kts 110°
2026-04-24 19:48 -47.20224 65.37762 38866 ft 525 kts 110°
2026-04-24 19:48 -47.22904 65.51519 38850 ft 525 kts 110°
2026-04-24 19:49 -47.26890 65.72156 38845 ft 526 kts 109°
2026-04-24 19:50 -47.30853 65.92905 38843 ft 526 kts 109°
2026-04-24 19:51 -47.33802 66.08492 38838 ft 527 kts 109°
2026-04-24 19:52 -47.36734 66.24116 38830 ft 528 kts 109°
2026-04-24 19:52 -47.38675 66.34536 38825 ft 528 kts 109°
2026-04-24 19:53 -47.40622 66.45045 38819 ft 529 kts 109°
2026-04-24 19:54 -47.43512 66.60754 38821 ft 529 kts 109°
2026-04-24 19:54 -47.45428 66.71244 38812 ft 529 kts 109°
2026-04-24 19:55 -47.47019 66.79998 38809 ft 530 kts 108°
2026-04-24 19:55 -47.49236 66.92271 38802 ft 530 kts 108°
2026-04-24 19:56 -47.51120 67.02764 38801 ft 530 kts 108°
2026-04-24 19:56 -47.53006 67.13333 38795 ft 530 kts 108°
2026-04-24 19:57 -47.54876 67.23870 38792 ft 531 kts 108°
2026-04-24 19:57 -47.56746 67.34471 38782 ft 531 kts 108°
2026-04-24 19:58 -47.58599 67.45041 38772 ft 532 kts 108°
2026-04-24 19:58 -47.60442 67.55616 38768 ft 532 kts 108°
2026-04-24 19:59 -47.62287 67.66264 38770 ft 532 kts 108°
2026-04-24 19:59 -47.64122 67.76918 38768 ft 532 kts 108°
2026-04-24 20:00 -47.65937 67.87519 38763 ft 533 kts 108°
2026-04-24 20:00 -47.67748 67.98169 38759 ft 533 kts 108°
2026-04-24 20:01 -47.69548 68.08810 38756 ft 533 kts 108°
2026-04-24 20:01 -47.71340 68.19477 38746 ft 534 kts 107°
2026-04-24 20:02 -47.72833 68.28415 38744 ft 534 kts 107°
2026-04-24 20:02 -47.74917 68.40965 38737 ft 535 kts 107°
2026-04-24 20:03 -47.76682 68.51667 38739 ft 535 kts 107°
2026-04-24 20:03 -47.78436 68.62372 38744 ft 534 kts 107°
2026-04-24 20:04 -47.80180 68.73086 38725 ft 534 kts 107°
2026-04-24 20:04 -47.81918 68.83827 38729 ft 535 kts 107°
2026-04-24 20:05 -47.83653 68.94621 38719 ft 535 kts 107°
2026-04-24 20:05 -47.85367 69.05355 38719 ft 535 kts 107°
2026-04-24 20:06 -47.87081 69.16158 38715 ft 536 kts 107°
2026-04-24 20:06 -47.88779 69.26930 38709 ft 536 kts 107°
2026-04-24 20:07 -47.90191 69.35946 38706 ft 536 kts 107°
2026-04-24 20:07 -47.92155 69.48563 38701 ft 535 kts 106°
2026-04-24 20:08 -47.93830 69.59400 38696 ft 535 kts 106°
2026-04-24 20:08 -47.95489 69.70215 38692 ft 535 kts 106°
2026-04-24 20:09 -47.97135 69.81012 38691 ft 536 kts 106°
2026-04-24 20:09 -47.98776 69.91857 38685 ft 535 kts 106°
2026-04-24 20:10 -48.00631 70.02542 38708 ft 529 kts 116°
2026-04-24 20:10 -48.03233 70.12802 38681 ft 531 kts 115°
2026-04-24 20:11 -48.05832 70.23196 38677 ft 532 kts 115°
2026-04-24 20:11 -48.08414 70.33528 38670 ft 532 kts 115°
2026-04-24 20:12 -48.10985 70.43884 38665 ft 533 kts 115°
2026-04-24 20:12 -48.13567 70.54325 38658 ft 533 kts 115°
2026-04-24 20:13 -48.16124 70.64714 38643 ft 533 kts 115°
2026-04-24 20:13 -48.18676 70.75131 38652 ft 535 kts 114°
2026-04-24 20:14 -48.21241 70.85651 38645 ft 536 kts 114°
2026-04-24 20:14 -48.23785 70.96137 38644 ft 537 kts 114°
2026-04-24 20:15 -48.26326 71.06658 38641 ft 538 kts 114°
2026-04-24 20:15 -48.28858 71.17192 38641 ft 538 kts 114°
2026-04-24 20:16 -48.31398 71.27811 38635 ft 538 kts 114°
2026-04-24 20:16 -48.33914 71.38378 38633 ft 538 kts 114°
2026-04-24 20:17 -48.36416 71.48942 38625 ft 538 kts 114°
2026-04-24 20:17 -48.40173 71.64896 38619 ft 538 kts 114°
2026-04-24 20:18 -48.42656 71.75506 38621 ft 538 kts 114°
2026-04-24 20:18 -48.45123 71.86099 38615 ft 538 kts 114°
2026-04-24 20:19 -48.47591 71.96752 38613 ft 538 kts 113°
2026-04-24 20:19 -48.50039 72.07368 38591 ft 538 kts 113°
2026-04-24 20:20 -48.52491 72.18053 38600 ft 537 kts 113°
2026-04-24 20:20 -48.54919 72.28687 38600 ft 538 kts 113°
2026-04-24 20:21 -48.57339 72.39341 38598 ft 538 kts 113°
2026-04-24 20:21 -48.59765 72.50076 38594 ft 538 kts 113°
2026-04-24 20:22 -48.62165 72.60750 38592 ft 538 kts 113°
2026-04-24 20:22 -48.64550 72.71407 38587 ft 538 kts 113°
2026-04-24 20:23 -48.66948 72.82182 38586 ft 538 kts 113°
2026-04-24 20:23 -48.69321 72.92895 38589 ft 538 kts 112°
2026-04-24 20:24 -48.71699 73.03690 38579 ft 538 kts 112°
2026-04-24 20:24 -48.74052 73.14423 38572 ft 539 kts 112°
2026-04-24 20:25 -48.76396 73.25179 38579 ft 539 kts 112°
2026-04-24 20:25 -48.78733 73.35949 38571 ft 539 kts 112°
2026-04-24 20:26 -48.81074 73.46802 38567 ft 539 kts 112°
2026-04-24 20:26 -48.83396 73.57615 38569 ft 540 kts 112°
2026-04-24 20:27 -48.85702 73.68420 38565 ft 540 kts 112°
2026-04-24 20:27 -48.88016 73.79311 38562 ft 541 kts 112°
2026-04-24 20:28 -48.90318 73.90212 38562 ft 541 kts 112°
2026-04-24 20:28 -48.92605 74.01098 38559 ft 542 kts 112°
2026-04-24 20:29 -48.94881 74.11987 38556 ft 542 kts 112°
2026-04-24 20:29 -48.97149 74.22901 38556 ft 542 kts 112°
2026-04-24 20:30 -48.99419 74.33885 38542 ft 543 kts 112°
2026-04-24 20:30 -49.01662 74.44796 38544 ft 542 kts 111°
2026-04-24 20:31 -49.03915 74.55814 38547 ft 543 kts 111°
2026-04-24 20:31 -49.06136 74.66741 38544 ft 543 kts 111°
2026-04-24 20:32 -49.08362 74.77750 38544 ft 544 kts 111°
2026-04-24 20:32 -49.10587 74.88821 38541 ft 544 kts 111°
2026-04-24 20:33 -49.12789 74.99835 38546 ft 544 kts 111°
2026-04-24 20:33 -49.14978 75.10845 38545 ft 544 kts 111°
2026-04-24 20:34 -49.17170 75.21939 38540 ft 544 kts 111°
2026-04-24 20:34 -49.19343 75.32996 38540 ft 545 kts 111°
2026-04-24 20:35 -49.21520 75.44136 38536 ft 545 kts 111°
2026-04-24 20:35 -49.23675 75.55231 38534 ft 546 kts 111°
2026-04-24 20:36 -49.25832 75.66401 38531 ft 546 kts 111°
2026-04-24 20:36 -49.27969 75.77529 38533 ft 546 kts 111°
2026-04-24 20:37 -49.30092 75.88652 38529 ft 547 kts 111°
2026-04-24 20:37 -49.32224 75.99890 38517 ft 547 kts 111°
2026-04-24 20:38 -49.34325 76.11029 38525 ft 548 kts 111°
2026-04-24 20:38 -49.36438 76.22298 38518 ft 548 kts 110°
2026-04-24 20:39 -49.38523 76.33486 38519 ft 548 kts 110°
2026-04-24 20:39 -49.40612 76.44762 38516 ft 548 kts 110°
2026-04-24 20:40 -49.42674 76.55963 38515 ft 548 kts 110°
2026-04-24 20:40 -49.44743 76.67269 38512 ft 548 kts 110°
2026-04-24 20:41 -49.46792 76.78537 38504 ft 549 kts 110°
2026-04-24 20:41 -49.48842 76.89882 38507 ft 550 kts 110°
2026-04-24 20:42 -49.50875 77.01199 38499 ft 551 kts 110°
2026-04-24 20:42 -49.52908 77.12591 38502 ft 551 kts 110°
2026-04-24 20:43 -49.54923 77.23950 38498 ft 551 kts 110°
2026-04-24 20:43 -49.56922 77.35299 38491 ft 552 kts 110°
2026-04-24 20:44 -49.58927 77.46750 38491 ft 551 kts 110°
2026-04-24 20:44 -49.60907 77.58126 38490 ft 551 kts 110°
2026-04-24 20:45 -49.62888 77.69591 38491 ft 551 kts 110°
2026-04-24 20:45 -49.64843 77.80974 38484 ft 551 kts 110°
2026-04-24 20:46 -49.66800 77.92444 38482 ft 552 kts 110°
2026-04-24 20:46 -49.68732 78.03847 38469 ft 551 kts 110°
2026-04-24 20:47 -49.70661 78.15300 38480 ft 552 kts 110°
2026-04-24 20:47 -49.72588 78.26825 38472 ft 552 kts 110°
2026-04-24 20:48 -49.74485 78.38245 38474 ft 553 kts 110°
2026-04-24 20:48 -49.76394 78.49815 38470 ft 553 kts 110°
2026-04-24 20:49 -49.78273 78.61282 38465 ft 553 kts 110°
2026-04-24 20:49 -49.79842 78.70909 38461 ft 553 kts 110°
2026-04-24 20:50 -49.82019 78.84371 38462 ft 553 kts 110°
2026-04-24 20:50 -49.83565 78.93998 38453 ft 553 kts 110°
2026-04-24 20:51 -49.85412 79.05570 38448 ft 553 kts 109°
2026-04-24 20:51 -49.87546 79.19043 38452 ft 553 kts 109°
2026-04-24 20:52 -49.89069 79.28727 38452 ft 553 kts 109°
2026-04-24 20:52 -49.90875 79.40283 38435 ft 554 kts 109°
2026-04-24 20:53 -49.92683 79.51937 38433 ft 554 kts 109°
2026-04-24 20:53 -49.94470 79.63544 38438 ft 554 kts 109°
2026-04-24 20:54 -49.96247 79.75162 38435 ft 555 kts 109°
2026-04-24 20:54 -49.98022 79.86853 38431 ft 555 kts 109°
2026-04-24 20:55 -49.99764 79.98508 38422 ft 556 kts 105°
2026-04-24 20:55 -50.00461 80.10586 38424 ft 564 kts 98°
2026-04-24 20:56 -50.00952 80.22716 38422 ft 564 kts 98°
2026-04-24 20:56 -50.01454 80.34859 38423 ft 564 kts 98°
2026-04-24 20:57 -50.01931 80.47060 38418 ft 564 kts 98°
2026-04-24 20:57 -50.02402 80.59217 38410 ft 565 kts 98°
2026-04-24 20:58 -50.02858 80.71455 38409 ft 565 kts 98°
2026-04-24 20:58 -50.03301 80.83623 38405 ft 565 kts 98°
2026-04-24 20:59 -50.03730 80.95773 38403 ft 565 kts 97°
2026-04-24 20:59 -50.04150 81.08037 38400 ft 565 kts 97°
2026-04-24 21:00 -50.04554 81.20194 38398 ft 565 kts 97°
2026-04-24 21:00 -50.04947 81.32436 38397 ft 565 kts 97°
2026-04-24 21:01 -50.05327 81.44621 38389 ft 565 kts 97°
2026-04-24 21:01 -50.05694 81.56845 38388 ft 565 kts 97°
2026-04-24 21:02 -50.06046 81.69014 38384 ft 565 kts 97°
2026-04-24 21:02 -50.06388 81.81224 38379 ft 566 kts 97°
2026-04-24 21:03 -50.06716 81.93435 38373 ft 567 kts 97°
2026-04-24 21:03 -50.07033 82.05719 38377 ft 566 kts 97°
2026-04-24 21:04 -50.07335 82.17915 38376 ft 565 kts 97°
2026-04-24 21:04 -50.07626 82.30157 38370 ft 565 kts 97°
2026-04-24 21:05 -50.07902 82.42346 38363 ft 565 kts 97°
2026-04-24 21:05 -50.08166 82.54543 38366 ft 565 kts 96°
2026-04-24 21:06 -50.08418 82.66825 38357 ft 565 kts 96°
2026-04-24 21:06 -50.08657 82.79038 38361 ft 565 kts 96°
2026-04-24 21:07 -50.08882 82.91224 38358 ft 565 kts 96°
2026-04-24 21:07 -50.09094 83.03411 38346 ft 564 kts 96°
2026-04-24 21:08 -50.09293 83.15584 38343 ft 564 kts 96°
2026-04-24 21:08 -50.09482 83.27871 38341 ft 565 kts 96°
2026-04-24 21:09 -50.09655 83.40066 38338 ft 565 kts 95°
2026-04-24 21:09 -50.09816 83.52231 38335 ft 565 kts 95°
2026-04-24 21:10 -50.09966 83.64525 38332 ft 565 kts 95°
2026-04-24 21:10 -50.10102 83.76756 38316 ft 566 kts 95°
2026-04-24 21:11 -50.10225 83.88962 38325 ft 565 kts 95°
2026-04-24 21:11 -50.10335 84.01226 38323 ft 566 kts 95°
2026-04-24 21:12 -50.10432 84.13440 38308 ft 565 kts 95°
2026-04-24 21:12 -50.10517 84.25662 38309 ft 565 kts 94°
2026-04-24 21:13 -50.10589 84.37920 38310 ft 564 kts 94°
2026-04-24 21:13 -50.10648 84.50173 38308 ft 564 kts 94°
2026-04-24 21:14 -50.10693 84.62385 38301 ft 564 kts 94°
2026-04-24 21:14 -50.10726 84.74577 38299 ft 564 kts 94°
2026-04-24 21:15 -50.10747 84.86757 38295 ft 564 kts 94°
2026-04-24 21:15 -50.10754 84.98944 38291 ft 563 kts 93°
2026-04-24 21:16 -50.10749 85.11179 38288 ft 563 kts 93°
2026-04-24 21:16 -50.10730 85.23395 38279 ft 563 kts 93°
2026-04-24 21:17 -50.10700 85.35538 38287 ft 564 kts 93°
2026-04-24 21:17 -50.10656 85.47808 38280 ft 564 kts 92°
2026-04-24 21:18 -50.10600 85.59931 38274 ft 564 kts 92°
2026-04-24 21:18 -50.10530 85.72182 38275 ft 564 kts 92°
2026-04-24 21:19 -50.10448 85.84429 38270 ft 564 kts 92°
2026-04-24 21:19 -50.10353 85.96643 38266 ft 564 kts 92°
2026-04-24 21:20 -50.10187 86.14880 38260 ft 564 kts 92°
2026-04-24 21:21 -50.10060 86.27130 38253 ft 565 kts 91°
2026-04-24 21:21 -50.09920 86.39342 38249 ft 564 kts 91°
2026-04-24 21:22 -50.09768 86.51530 38253 ft 564 kts 91°
2026-04-24 21:22 -50.09602 86.63793 38241 ft 565 kts 91°
2026-04-24 21:23 -50.09423 86.76050 38238 ft 565 kts 91°
2026-04-24 21:23 -50.09232 86.88268 38237 ft 565 kts 91°
2026-04-24 21:24 -50.09029 87.00427 38235 ft 565 kts 90°
2026-04-24 21:24 -50.08811 87.12705 38232 ft 565 kts 90°
2026-04-24 21:25 -50.08582 87.24875 38220 ft 565 kts 90°
2026-04-24 21:25 -50.08338 87.37136 38218 ft 565 kts 90°
2026-04-24 21:26 -50.08084 87.49326 38213 ft 565 kts 90°
2026-04-24 21:26 -50.07817 87.61478 38213 ft 565 kts 90°
2026-04-24 21:27 -50.07535 87.73738 38212 ft 564 kts 90°
2026-04-24 21:27 -50.07242 87.85901 38206 ft 564 kts 89°
2026-04-24 21:28 -50.06934 87.98159 38206 ft 564 kts 89°
2026-04-24 21:28 -50.06616 88.10339 38199 ft 564 kts 89°
2026-04-24 21:29 -50.06285 88.22480 38197 ft 564 kts 89°
2026-04-24 21:29 -50.05941 88.34664 38190 ft 564 kts 89°
2026-04-24 21:30 -50.05583 88.46894 38185 ft 563 kts 89°
2026-04-24 21:30 -50.05215 88.59009 38187 ft 564 kts 89°
2026-04-24 21:31 -50.04831 88.71227 38178 ft 565 kts 89°
2026-04-24 21:31 -50.04437 88.83358 38176 ft 564 kts 88°
2026-04-24 21:32 -50.04028 88.95560 38177 ft 564 kts 88°
2026-04-24 21:32 -50.03606 89.07792 38173 ft 564 kts 88°
2026-04-24 21:33 -50.03172 89.19949 38173 ft 564 kts 88°
2026-04-24 21:33 -50.02727 89.32100 38176 ft 564 kts 88°
2026-04-24 21:34 -50.02269 89.44246 38161 ft 564 kts 88°
2026-04-24 21:34 -50.01796 89.56440 38159 ft 564 kts 88°
2026-04-24 21:35 -50.01313 89.68554 38165 ft 564 kts 87°
2026-04-24 21:35 -50.00815 89.80744 38157 ft 564 kts 87°
2026-04-24 21:36 -50.00304 89.92928 38163 ft 563 kts 87°
2026-04-24 21:36 -50.00203 90.05022 38166 ft 561 kts 96°
2026-04-24 21:37 -50.00734 90.17091 38155 ft 562 kts 96°
2026-04-24 21:37 -50.01220 90.29257 38155 ft 563 kts 95°
2026-04-24 21:38 -50.01711 90.41337 38145 ft 563 kts 95°
2026-04-24 21:38 -50.02181 90.53475 38142 ft 563 kts 95°
2026-04-24 21:39 -50.02645 90.65688 38141 ft 563 kts 95°
2026-04-24 21:39 -50.03093 90.77849 38139 ft 563 kts 95°
2026-04-24 21:40 -50.03528 90.90007 38131 ft 564 kts 95°
2026-04-24 21:40 -50.03949 91.02107 38126 ft 563 kts 94°
2026-04-24 21:41 -50.04359 91.14263 38126 ft 563 kts 94°
2026-04-24 21:41 -50.04756 91.26440 38118 ft 562 kts 94°
2026-04-24 21:42 -50.05139 91.38553 38117 ft 562 kts 94°
2026-04-24 21:42 -50.05513 91.50755 38115 ft 562 kts 94°
2026-04-24 21:43 -50.05871 91.62898 38113 ft 563 kts 94°
2026-04-24 21:43 -50.06216 91.75029 38116 ft 563 kts 94°
2026-04-24 21:44 -50.06549 91.87173 38106 ft 563 kts 94°
2026-04-24 21:44 -50.06872 91.99419 38107 ft 565 kts 93°
2026-04-24 21:45 -50.07181 92.11602 38104 ft 565 kts 93°
2026-04-24 21:45 -50.07476 92.23757 38099 ft 564 kts 93°
2026-04-24 21:46 -50.07760 92.35976 38088 ft 564 kts 93°
2026-04-24 21:46 -50.08030 92.48161 38092 ft 564 kts 93°
2026-04-24 21:47 -50.08287 92.60353 38093 ft 564 kts 92°
2026-04-24 21:47 -50.08534 92.72631 38082 ft 564 kts 92°
2026-04-24 21:48 -50.08765 92.84787 38086 ft 564 kts 92°
2026-04-24 21:48 -50.08984 92.96982 38078 ft 564 kts 92°
2026-04-24 21:49 -50.09190 93.09173 38082 ft 564 kts 92°
2026-04-24 21:49 -50.09384 93.21374 38073 ft 564 kts 92°
2026-04-24 21:50 -50.09565 93.33562 38070 ft 563 kts 92°
2026-04-24 21:50 -50.09733 93.45793 38075 ft 564 kts 91°
2026-04-24 21:51 -50.09888 93.57993 38062 ft 564 kts 91°
2026-04-24 21:51 -50.10030 93.70166 38061 ft 564 kts 91°
2026-04-24 21:52 -50.10160 93.82362 38060 ft 564 kts 91°
2026-04-24 21:52 -50.10258 93.92531 38058 ft 564 kts 91°
2026-04-24 21:53 -50.10381 94.06761 38060 ft 564 kts 91°
2026-04-24 21:53 -50.10472 94.18957 38057 ft 564 kts 91°
2026-04-24 21:54 -50.10539 94.29150 38058 ft 564 kts 91°
2026-04-24 21:54 -50.10606 94.41336 38056 ft 564 kts 90°
2026-04-24 21:55 -50.10662 94.53576 38048 ft 564 kts 90°
2026-04-24 21:55 -50.10704 94.65773 38049 ft 564 kts 90°
2026-04-24 21:56 -50.10733 94.77930 38048 ft 564 kts 90°
2026-04-24 21:56 -50.10750 94.90182 38051 ft 563 kts 90°
2026-04-24 21:57 -50.10754 95.02316 38051 ft 563 kts 90°
2026-04-24 21:57 -50.10745 95.14545 38045 ft 564 kts 90°
2026-04-24 21:58 -50.10724 95.26742 38055 ft 564 kts 90°
2026-04-24 21:58 -50.10689 95.38981 38049 ft 564 kts 89°
2026-04-24 21:59 -50.10642 95.51159 38056 ft 564 kts 89°
2026-04-24 21:59 -50.10582 95.63311 38047 ft 564 kts 89°
2026-04-24 22:00 -50.10509 95.75572 38053 ft 564 kts 89°
2026-04-24 22:00 -50.10424 95.87738 38054 ft 564 kts 89°
2026-04-24 22:01 -50.10325 96.00005 38050 ft 564 kts 89°
2026-04-24 22:01 -50.10214 96.12179 38045 ft 564 kts 89°
2026-04-24 22:02 -50.10089 96.24421 38046 ft 564 kts 88°
2026-04-24 22:02 -50.09953 96.36604 38044 ft 564 kts 88°
2026-04-24 22:03 -50.09803 96.48805 38041 ft 564 kts 88°
2026-04-24 22:03 -50.09641 96.60997 38035 ft 564 kts 88°
2026-04-24 22:04 -50.09465 96.73268 38035 ft 565 kts 88°
2026-04-24 22:04 -50.09277 96.85451 38016 ft 565 kts 88°
2026-04-24 22:05 -50.09075 96.97725 38042 ft 565 kts 88°
2026-04-24 22:05 -50.08861 97.09937 38024 ft 565 kts 87°
2026-04-24 22:06 -50.08635 97.22130 38044 ft 566 kts 87°
2026-04-24 22:06 -50.08394 97.34420 38025 ft 566 kts 87°
2026-04-24 22:07 -50.08141 97.46645 38039 ft 567 kts 87°
2026-04-24 22:07 -50.07874 97.58927 38035 ft 567 kts 87°
2026-04-24 22:08 -50.07595 97.71174 38048 ft 568 kts 87°
2026-04-24 22:08 -50.07302 97.83446 38029 ft 568 kts 86°
2026-04-24 22:09 -50.06998 97.95680 38049 ft 569 kts 86°
2026-04-24 22:09 -50.06679 98.07970 38037 ft 569 kts 86°
2026-04-24 22:10 -50.06346 98.20293 38053 ft 570 kts 86°
2026-04-24 22:10 -50.06001 98.32583 38034 ft 570 kts 86°
2026-04-24 22:11 -50.05641 98.44933 38053 ft 570 kts 86°
2026-04-24 22:11 -50.05269 98.57254 38038 ft 571 kts 86°
2026-04-24 22:12 -50.04885 98.69546 38057 ft 572 kts 86°
2026-04-24 22:12 -50.04484 98.81925 38045 ft 571 kts 86°
2026-04-24 22:13 -50.04074 98.94207 38064 ft 571 kts 85°
2026-04-24 22:13 -50.03648 99.06590 38046 ft 572 kts 85°
2026-04-24 22:14 -50.03209 99.18925 38070 ft 572 kts 85°
2026-04-24 22:14 -50.02756 99.31305 38054 ft 572 kts 85°
2026-04-24 22:15 -50.02294 99.43583 38069 ft 571 kts 85°
2026-04-24 22:15 -50.01815 99.55941 38049 ft 571 kts 85°
2026-04-24 22:16 -50.01326 99.68249 38073 ft 571 kts 85°
2026-04-24 22:16 -50.00825 99.80502 38064 ft 571 kts 85°
2026-04-24 22:17 -50.00308 99.92843 38084 ft 571 kts 85°
2026-04-24 22:17 -50.00208 100.05126 38088 ft 571 kts 94°
2026-04-24 22:18 -50.00747 100.17431 38094 ft 572 kts 94°
2026-04-24 22:18 -50.01244 100.29825 38080 ft 572 kts 94°
2026-04-24 22:19 -50.01741 100.42115 38084 ft 572 kts 94°
2026-04-24 22:19 -50.02217 100.54419 38072 ft 571 kts 94°
2026-04-24 22:20 -50.02686 100.66791 38092 ft 571 kts 94°
2026-04-24 22:20 -50.03138 100.79107 38079 ft 571 kts 93°
2026-04-24 22:21 -50.03576 100.91374 38094 ft 570 kts 93°
2026-04-24 22:21 -50.04005 101.03739 38083 ft 570 kts 93°
2026-04-24 22:22 -50.04416 101.15995 38099 ft 570 kts 93°
2026-04-24 22:22 -50.04815 101.28267 38089 ft 569 kts 93°
2026-04-24 22:23 -50.05203 101.40599 38106 ft 570 kts 93°
2026-04-24 22:23 -50.05576 101.52889 38093 ft 570 kts 93°
2026-04-24 22:24 -50.05937 101.65179 38111 ft 569 kts 93°
2026-04-24 22:24 -50.06284 101.77477 38101 ft 569 kts 93°
2026-04-24 22:25 -50.06620 101.89799 38112 ft 568 kts 93°
2026-04-24 22:25 -50.06940 102.02044 38100 ft 568 kts 93°
2026-04-24 22:26 -50.07249 102.14360 38118 ft 567 kts 93°
2026-04-24 22:26 -50.07542 102.26596 38106 ft 567 kts 93°
2026-04-24 22:27 -50.07823 102.38801 38118 ft 567 kts 93°
2026-04-24 22:27 -50.08093 102.51115 38110 ft 566 kts 93°
2026-04-24 22:28 -50.08348 102.63320 38133 ft 566 kts 93°
2026-04-24 22:28 -50.08591 102.75588 38114 ft 565 kts 93°
2026-04-24 22:29 -50.08930 102.93905 38128 ft 565 kts 93°
2026-04-24 22:29 -50.09139 103.06102 38133 ft 564 kts 93°
2026-04-24 22:30 -50.09336 103.18263 38136 ft 564 kts 93°
2026-04-24 22:30 -50.09518 103.30406 38141 ft 563 kts 93°
2026-04-24 22:31 -50.09690 103.42591 38141 ft 563 kts 93°
2026-04-24 22:31 -50.09848 103.54792 38140 ft 562 kts 93°
2026-04-24 22:32 -50.09994 103.66953 38142 ft 562 kts 93°
2026-04-24 22:32 -50.10126 103.79077 38148 ft 561 kts 93°
2026-04-24 22:33 -50.10191 103.85152 38611 ft 561 kts 88°
2026-04-24 22:33 -50.10252 103.91278 38488 ft 568 kts 88°
2026-04-24 22:33 -50.10299 103.97469 38379 ft 572 kts 88°
2026-04-24 22:33 -50.10351 104.03586 38270 ft 572 kts 88°
2026-04-24 22:34 -50.10407 104.09797 38163 ft 572 kts 88°
2026-04-24 22:34 -50.10455 104.15967 38161 ft 569 kts 88°
2026-04-24 22:34 -50.10531 104.28377 38162 ft 570 kts 88°
2026-04-24 22:35 -50.10605 104.40670 38165 ft 571 kts 88°
2026-04-24 22:35 -50.10659 104.53093 38163 ft 571 kts 88°
2026-04-24 22:36 -50.10703 104.65414 38172 ft 571 kts 87°
2026-04-24 22:36 -50.10733 104.77826 38171 ft 572 kts 87°
2026-04-24 22:37 -50.10750 104.90165 38162 ft 572 kts 87°
2026-04-24 22:37 -50.10754 105.02590 38163 ft 572 kts 87°
2026-04-24 22:38 -50.10745 105.14935 38168 ft 572 kts 87°
2026-04-24 22:38 -50.10722 105.27356 38168 ft 572 kts 86°
2026-04-24 22:39 -50.10687 105.39716 38175 ft 572 kts 86°
2026-04-24 22:39 -50.10638 105.52074 38172 ft 572 kts 86°
2026-04-24 22:40 -50.10576 105.64499 38175 ft 572 kts 86°
2026-04-24 22:40 -50.10501 105.76830 38182 ft 572 kts 86°
2026-04-24 22:41 -50.10413 105.89215 38180 ft 571 kts 86°
2026-04-24 22:41 -50.10329 105.99537 38190 ft 571 kts 86°
2026-04-24 22:42 -50.10197 106.13921 38188 ft 571 kts 85°
2026-04-24 22:42 -50.10068 106.26347 38194 ft 572 kts 85°
2026-04-24 22:43 -50.09928 106.38674 38193 ft 572 kts 85°
2026-04-24 22:43 -50.09774 106.51064 38198 ft 572 kts 85°
2026-04-24 22:44 -50.09608 106.63378 38193 ft 571 kts 85°
2026-04-24 22:44 -50.09427 106.75813 38197 ft 571 kts 85°
2026-04-24 22:45 -50.09234 106.88147 38202 ft 571 kts 85°
2026-04-24 22:45 -50.09028 107.00464 38201 ft 571 kts 85°
2026-04-24 22:46 -50.08808 107.12883 38206 ft 571 kts 84°
2026-04-24 22:46 -50.08575 107.25234 38204 ft 571 kts 84°
2026-04-24 22:47 -50.08329 107.37587 38210 ft 571 kts 84°
2026-04-24 22:47 -50.08071 107.49904 38214 ft 571 kts 84°
2026-04-24 22:48 -50.07800 107.62238 38213 ft 571 kts 84°
2026-04-24 22:48 -50.07513 107.74656 38220 ft 572 kts 84°
2026-04-24 22:49 -50.07216 107.86966 38224 ft 571 kts 84°
2026-04-24 22:49 -50.06904 107.99345 38238 ft 571 kts 84°
2026-04-24 22:50 -50.06581 108.11659 38227 ft 571 kts 84°
2026-04-24 22:50 -50.06242 108.24035 38231 ft 571 kts 83°
2026-04-24 22:51 -50.05894 108.36306 38227 ft 571 kts 83°
2026-04-24 22:51 -50.05530 108.48675 38230 ft 571 kts 83°
2026-04-24 22:52 -50.05154 108.60966 38233 ft 570 kts 83°
2026-04-24 22:52 -50.04764 108.73318 38234 ft 571 kts 83°
2026-04-24 22:53 -50.04363 108.85606 38235 ft 571 kts 83°
2026-04-24 22:53 -50.03947 108.97959 38240 ft 570 kts 83°
2026-04-24 22:54 -50.03519 109.10254 38245 ft 571 kts 83°
2026-04-24 22:54 -50.03078 109.22551 38250 ft 571 kts 83°
2026-04-24 22:55 -50.02700 109.32818 38249 ft 571 kts 83°
2026-04-24 22:55 -50.02155 109.47200 38249 ft 571 kts 82°
2026-04-24 22:56 -50.01756 109.57469 38251 ft 570 kts 82°
2026-04-24 22:56 -50.01266 109.69719 38256 ft 570 kts 82°
2026-04-24 22:57 -50.00760 109.82071 38262 ft 570 kts 82°
2026-04-24 22:57 -50.00244 109.94341 38266 ft 570 kts 82°
2026-04-24 22:58 -49.99056 110.06337 38263 ft 562 kts 71°
2026-04-24 22:58 -49.97252 110.18196 38280 ft 563 kts 71°
2026-04-24 22:59 -49.95462 110.29995 38276 ft 562 kts 71°
2026-04-24 23:00 -49.92729 110.47747 38272 ft 562 kts 71°
2026-04-24 23:00 -49.90907 110.59512 38294 ft 562 kts 70°
2026-04-24 23:01 -49.89071 110.71247 38285 ft 563 kts 70°
2026-04-24 23:01 -49.87206 110.83106 38287 ft 564 kts 70°
2026-04-24 23:02 -49.85342 110.94862 38289 ft 564 kts 70°
2026-04-24 23:02 -49.83455 111.06685 38290 ft 564 kts 70°
2026-04-24 23:03 -49.81561 111.18463 38298 ft 564 kts 70°
2026-04-24 23:03 -49.79661 111.30198 38309 ft 564 kts 70°
2026-04-24 23:04 -49.77741 111.41971 38300 ft 563 kts 70°
2026-04-24 23:04 -49.75820 111.53671 38305 ft 563 kts 70°
2026-04-24 23:05 -49.73875 111.65429 38306 ft 563 kts 69°
2026-04-24 23:05 -49.71932 111.77104 38320 ft 563 kts 69°
2026-04-24 23:06 -49.69968 111.88816 38314 ft 564 kts 69°
2026-04-24 23:06 -49.67982 112.00586 38310 ft 564 kts 69°
2026-04-24 23:07 -49.65998 112.12261 38315 ft 565 kts 69°
2026-04-24 23:07 -49.63999 112.23946 38317 ft 566 kts 69°
2026-04-24 23:08 -49.61971 112.35722 38326 ft 565 kts 69°
2026-04-24 23:08 -49.59951 112.47372 38328 ft 565 kts 69°
2026-04-24 23:09 -49.57897 112.59137 38327 ft 566 kts 68°
2026-04-24 23:09 -49.55845 112.70820 38324 ft 566 kts 68°
2026-04-24 23:10 -49.53784 112.82474 38326 ft 566 kts 68°
2026-04-24 23:10 -49.51707 112.94144 38326 ft 566 kts 68°
2026-04-24 23:11 -49.49622 113.05777 38332 ft 567 kts 68°
2026-04-24 23:11 -49.47505 113.17520 38335 ft 568 kts 68°
2026-04-24 23:12 -49.45388 113.29185 38334 ft 568 kts 68°
2026-04-24 23:12 -49.43261 113.40828 38345 ft 568 kts 68°
2026-04-24 23:13 -49.41110 113.52532 38341 ft 569 kts 67°
2026-04-24 23:13 -49.38940 113.64264 38349 ft 570 kts 67°
2026-04-24 23:14 -49.36767 113.75939 38343 ft 571 kts 67°
2026-04-24 23:14 -49.34575 113.87639 38347 ft 572 kts 67°
2026-04-24 23:15 -49.32369 113.99342 38350 ft 572 kts 67°
2026-04-24 23:15 -49.30143 114.11080 38346 ft 572 kts 67°
2026-04-24 23:16 -49.27911 114.22768 38351 ft 574 kts 66°
2026-04-24 23:16 -49.25674 114.34421 38348 ft 574 kts 66°
2026-04-24 23:17 -49.23413 114.46114 38352 ft 575 kts 66°
2026-04-24 23:17 -49.21128 114.57871 38361 ft 576 kts 66°
2026-04-24 23:18 -49.18839 114.69572 38355 ft 576 kts 66°
2026-04-24 23:18 -49.16536 114.81271 38362 ft 576 kts 66°
2026-04-24 23:19 -49.14212 114.93009 38365 ft 576 kts 66°
2026-04-24 23:19 -49.11884 115.04697 38364 ft 577 kts 66°
2026-04-24 23:20 -49.09545 115.16368 38363 ft 577 kts 66°
2026-04-24 23:20 -49.07179 115.28103 38367 ft 577 kts 66°
2026-04-24 23:21 -49.04817 115.39752 38372 ft 577 kts 66°
2026-04-24 23:21 -49.02424 115.51475 38377 ft 578 kts 66°
2026-04-24 23:22 -49.00032 115.63135 38381 ft 579 kts 66°
2026-04-24 23:22 -48.97611 115.74865 38377 ft 579 kts 66°
2026-04-24 23:23 -48.95191 115.86517 38379 ft 580 kts 66°
2026-04-24 23:23 -48.92758 115.98170 38380 ft 580 kts 66°
2026-04-24 23:24 -48.90296 116.09887 38383 ft 580 kts 66°
2026-04-24 23:24 -48.87841 116.21507 38396 ft 580 kts 66°
2026-04-24 23:25 -48.85366 116.33154 38391 ft 579 kts 66°
2026-04-24 23:25 -48.82880 116.44789 38395 ft 579 kts 66°
2026-04-24 23:26 -48.80393 116.56359 38397 ft 579 kts 65°
2026-04-24 23:26 -48.77879 116.67987 38401 ft 579 kts 65°
2026-04-24 23:27 -48.75375 116.79509 38399 ft 578 kts 65°
2026-04-24 23:27 -48.72859 116.91021 38411 ft 577 kts 65°
2026-04-24 23:28 -48.70316 117.02591 38414 ft 577 kts 65°
2026-04-24 23:28 -48.67775 117.14086 38426 ft 577 kts 65°
2026-04-24 23:29 -48.65227 117.25551 38424 ft 576 kts 65°
2026-04-24 23:29 -48.62671 117.36989 38431 ft 576 kts 65°
2026-04-24 23:30 -48.60091 117.48472 38437 ft 576 kts 65°
2026-04-24 23:30 -48.57504 117.59922 38442 ft 576 kts 65°
2026-04-24 23:31 -48.54912 117.71338 38453 ft 576 kts 65°
2026-04-24 23:31 -48.52310 117.82732 38462 ft 575 kts 65°
2026-04-24 23:32 -48.49698 117.94111 38466 ft 575 kts 65°
2026-04-24 23:32 -48.47075 118.05478 38471 ft 574 kts 65°
2026-04-24 23:33 -48.44434 118.16857 38478 ft 573 kts 65°
2026-04-24 23:33 -48.41800 118.28154 38486 ft 573 kts 65°
2026-04-24 23:34 -48.39160 118.39413 38492 ft 571 kts 65°
2026-04-24 23:34 -48.36498 118.50706 38498 ft 570 kts 65°
2026-04-24 23:35 -48.33856 118.61860 38507 ft 569 kts 65°
2026-04-24 23:35 -48.31190 118.73058 38524 ft 568 kts 65°
2026-04-24 23:36 -48.28507 118.84268 38524 ft 568 kts 65°
2026-04-24 23:36 -48.25837 118.95368 38520 ft 567 kts 65°
2026-04-24 23:37 -48.23154 119.06462 38532 ft 567 kts 64°
2026-04-24 23:37 -48.19106 119.23105 38541 ft 566 kts 64°
2026-04-24 23:38 -48.16384 119.34219 38546 ft 566 kts 64°
2026-04-24 23:38 -48.13674 119.45235 38558 ft 565 kts 64°
2026-04-24 23:39 -48.10956 119.56230 38566 ft 565 kts 64°
2026-04-24 23:39 -48.08209 119.67284 38573 ft 565 kts 64°
2026-04-24 23:40 -48.05471 119.78250 38590 ft 565 kts 64°
2026-04-24 23:40 -48.02706 119.89270 38590 ft 565 kts 64°
2026-04-24 23:41 -47.99925 120.00180 38600 ft 562 kts 59°
2026-04-24 23:41 -47.96470 120.10660 38609 ft 560 kts 58°
2026-04-24 23:42 -47.93022 120.21051 38614 ft 560 kts 58°
2026-04-24 23:42 -47.89549 120.31460 38617 ft 560 kts 58°
2026-04-24 23:43 -47.86078 120.41822 38629 ft 561 kts 58°
2026-04-24 23:43 -47.82595 120.52184 38639 ft 560 kts 58°
2026-04-24 23:44 -47.79097 120.62540 38643 ft 561 kts 58°
2026-04-24 23:44 -47.75568 120.72955 38650 ft 561 kts 58°
2026-04-24 23:45 -47.72061 120.83256 38664 ft 561 kts 58°
2026-04-24 23:45 -47.68527 120.93602 38671 ft 561 kts 58°
2026-04-24 23:46 -47.64994 121.03899 38676 ft 561 kts 58°
2026-04-24 23:46 -47.61432 121.14240 38688 ft 562 kts 58°
2026-04-24 23:47 -47.57872 121.24538 38695 ft 562 kts 58°
2026-04-24 23:47 -47.54286 121.34866 38703 ft 562 kts 58°
2026-04-24 23:48 -47.50727 121.45079 38712 ft 562 kts 58°
2026-04-24 23:48 -47.47121 121.55385 38719 ft 562 kts 58°
2026-04-24 23:49 -47.43536 121.65590 38724 ft 562 kts 58°
2026-04-24 23:49 -47.39909 121.75877 38735 ft 562 kts 58°
2026-04-24 23:50 -47.36293 121.86089 38741 ft 562 kts 58°
2026-04-24 23:50 -47.32667 121.96293 38753 ft 562 kts 58°
2026-04-24 23:51 -47.29053 122.06424 38758 ft 562 kts 58°
2026-04-24 23:51 -47.25393 122.16643 38763 ft 562 kts 58°
2026-04-24 23:52 -47.21750 122.26775 38780 ft 561 kts 58°
2026-04-24 23:52 -47.18108 122.36867 38774 ft 561 kts 58°
2026-04-24 23:53 -47.14430 122.47019 38780 ft 560 kts 58°
2026-04-24 23:53 -47.10779 122.57060 38795 ft 560 kts 58°
2026-04-24 23:54 -47.07093 122.67158 38805 ft 560 kts 59°
2026-04-24 23:54 -47.03419 122.77185 38805 ft 559 kts 59°
2026-04-24 23:55 -47.00348 122.85537 38808 ft 559 kts 59°
2026-04-24 23:55 -46.96657 122.95541 38815 ft 559 kts 59°
2026-04-24 23:56 -46.92938 123.05583 38821 ft 559 kts 59°
2026-04-24 23:56 -46.89233 123.15552 38825 ft 559 kts 59°
2026-04-24 23:57 -46.85505 123.25544 38828 ft 559 kts 59°
2026-04-24 23:57 -46.81798 123.35444 38835 ft 559 kts 59°
2026-04-24 23:58 -46.78052 123.45410 38836 ft 558 kts 59°
2026-04-24 23:58 -46.74316 123.55312 38848 ft 558 kts 59°
2026-04-24 23:59 -46.70574 123.65195 38849 ft 558 kts 59°
2026-04-24 23:59 -46.66822 123.75068 38855 ft 557 kts 59°
2026-04-25 00:00 -46.63051 123.84956 38860 ft 557 kts 59°
2026-04-25 00:00 -46.59291 123.94778 38865 ft 557 kts 59°
2026-04-25 00:01 -46.55498 124.04651 38872 ft 557 kts 59°
2026-04-25 00:01 -46.51729 124.14423 38885 ft 557 kts 59°
2026-04-25 00:02 -46.47939 124.24220 38877 ft 556 kts 59°
2026-04-25 00:02 -46.44141 124.33998 38885 ft 556 kts 59°
2026-04-25 00:03 -46.40345 124.43737 38892 ft 558 kts 59°
2026-04-25 00:03 -46.36515 124.53529 38897 ft 557 kts 59°
2026-04-25 00:04 -46.32713 124.63213 38899 ft 555 kts 59°
2026-04-25 00:04 -46.28871 124.72966 38899 ft 554 kts 59°
2026-04-25 00:05 -46.25061 124.82602 38897 ft 553 kts 59°
2026-04-25 00:05 -46.21234 124.92248 38902 ft 552 kts 59°
2026-04-25 00:06 -46.17420 125.01828 38906 ft 552 kts 60°
2026-04-25 00:06 -46.13603 125.11383 38909 ft 551 kts 60°
2026-04-25 00:07 -46.09757 125.20974 38912 ft 550 kts 60°
2026-04-25 00:07 -46.05922 125.30509 38915 ft 550 kts 60°
2026-04-25 00:08 -46.02102 125.39969 38920 ft 549 kts 60°
2026-04-25 00:08 -45.98268 125.49436 38918 ft 549 kts 60°
2026-04-25 00:09 -45.94411 125.58925 38920 ft 548 kts 60°
2026-04-25 00:09 -45.90565 125.68354 38925 ft 547 kts 60°
2026-04-25 00:10 -45.86716 125.77760 38931 ft 547 kts 60°
2026-04-25 00:10 -45.82867 125.87133 38924 ft 547 kts 60°
2026-04-25 00:11 -45.78989 125.96543 38936 ft 546 kts 60°
2026-04-25 00:11 -45.75136 126.05863 38936 ft 546 kts 60°
2026-04-25 00:12 -45.71247 126.15240 38939 ft 545 kts 60°
2026-04-25 00:12 -45.67378 126.24536 38944 ft 545 kts 60°
2026-04-25 00:13 -45.63497 126.33830 38950 ft 545 kts 60°
2026-04-25 00:13 -45.59627 126.43067 38947 ft 544 kts 60°
2026-04-25 00:14 -45.55725 126.52348 38952 ft 543 kts 60°
2026-04-25 00:14 -45.51839 126.61563 38951 ft 543 kts 60°
2026-04-25 00:15 -45.47947 126.70761 38956 ft 542 kts 60°
2026-04-25 00:15 -45.44031 126.79984 38958 ft 542 kts 60°
2026-04-25 00:16 -45.40131 126.89141 38961 ft 541 kts 60°
2026-04-25 00:16 -45.36241 126.98245 38964 ft 540 kts 60°
2026-04-25 00:17 -45.32341 127.07343 38964 ft 540 kts 61°
2026-04-25 00:17 -45.28435 127.16424 38968 ft 539 kts 61°
2026-04-25 00:18 -45.24513 127.25515 38968 ft 537 kts 61°
2026-04-25 00:18 -45.20613 127.34525 38967 ft 536 kts 61°
2026-04-25 00:19 -45.16722 127.43485 38976 ft 535 kts 61°
2026-04-25 00:19 -45.12825 127.52432 38977 ft 534 kts 61°
2026-04-25 00:20 -45.08913 127.61384 38988 ft 534 kts 61°
2026-04-25 00:20 -45.05016 127.70274 38992 ft 533 kts 61°
2026-04-25 00:21 -45.01116 127.79143 38997 ft 532 kts 61°
2026-04-25 00:21 -44.97185 127.88055 38999 ft 531 kts 61°
2026-04-25 00:22 -44.93294 127.96848 39002 ft 530 kts 61°
2026-04-25 00:22 -44.89399 128.05625 39009 ft 529 kts 61°
2026-04-25 00:23 -44.85497 128.14387 39011 ft 528 kts 61°
2026-04-25 00:23 -44.81575 128.23171 39009 ft 527 kts 61°
2026-04-25 00:24 -44.77683 128.31860 39017 ft 526 kts 61°
2026-04-25 00:24 -44.73773 128.40560 39017 ft 525 kts 61°
2026-04-25 00:25 -44.69874 128.49213 39019 ft 525 kts 61°
2026-04-25 00:25 -44.65942 128.57909 39021 ft 525 kts 61°
2026-04-25 00:26 -44.62036 128.66525 39027 ft 524 kts 61°
2026-04-25 00:26 -44.58128 128.75119 39026 ft 524 kts 61°
2026-04-25 00:27 -44.54194 128.83742 39026 ft 523 kts 61°
2026-04-25 00:27 -44.50275 128.92308 39031 ft 523 kts 61°
2026-04-25 00:28 -44.46358 129.00844 39027 ft 523 kts 61°
2026-04-25 00:28 -44.42403 129.09438 39030 ft 523 kts 61°
2026-04-25 00:29 -44.38472 129.17953 39035 ft 524 kts 60°
2026-04-25 00:29 -44.34505 129.26522 39034 ft 524 kts 60°
2026-04-25 00:30 -44.30546 129.35047 39039 ft 523 kts 60°
2026-04-25 00:30 -44.26582 129.43559 39039 ft 523 kts 60°
2026-04-25 00:31 -44.22619 129.52043 39043 ft 524 kts 60°
2026-04-25 00:31 -44.18647 129.60523 39033 ft 524 kts 60°
2026-04-25 00:32 -44.14661 129.69006 39039 ft 523 kts 60°
2026-04-25 00:32 -44.10682 129.77449 39043 ft 524 kts 60°
2026-04-25 00:33 -44.06671 129.85936 39050 ft 522 kts 60°
2026-04-25 00:33 -44.02688 129.94341 39054 ft 522 kts 60°
2026-04-25 00:34 -43.99017 130.02927 39077 ft 514 kts 70°
2026-04-25 00:34 -43.96004 130.11962 39055 ft 515 kts 69°
2026-04-25 00:35 -43.92993 130.20922 39056 ft 514 kts 69°
2026-04-25 00:35 -43.89962 130.29932 39059 ft 513 kts 69°
2026-04-25 00:36 -43.86936 130.38887 39056 ft 512 kts 69°
2026-04-25 00:36 -43.83919 130.47792 39062 ft 511 kts 69°
2026-04-25 00:37 -43.80907 130.56646 39060 ft 510 kts 69°
2026-04-25 00:37 -43.77869 130.65551 39061 ft 509 kts 68°
2026-04-25 00:38 -43.74851 130.74369 39064 ft 509 kts 68°
2026-04-25 00:38 -43.71821 130.83192 39067 ft 509 kts 68°
2026-04-25 00:39 -43.68763 130.92069 39065 ft 510 kts 68°
2026-04-25 00:39 -43.65726 131.00856 39070 ft 510 kts 68°
2026-04-25 00:40 -43.62652 131.09720 39071 ft 510 kts 68°
2026-04-25 00:40 -43.59593 131.18514 39069 ft 510 kts 68°
2026-04-25 00:41 -43.56511 131.27344 39074 ft 510 kts 67°
2026-04-25 00:41 -43.53427 131.36153 39068 ft 511 kts 67°
2026-04-25 00:42 -43.50330 131.44970 39077 ft 512 kts 67°
2026-04-25 00:42 -43.47233 131.53757 39073 ft 512 kts 66°
2026-04-25 00:43 -43.44104 131.62608 39080 ft 512 kts 66°
2026-04-25 00:43 -43.40992 131.71382 39083 ft 513 kts 66°
2026-04-25 00:44 -43.37846 131.80226 39082 ft 513 kts 66°
2026-04-25 00:44 -43.34725 131.88969 39078 ft 512 kts 65°
2026-04-25 00:45 -43.31571 131.97779 39079 ft 512 kts 65°
2026-04-25 00:45 -43.28440 132.06495 39080 ft 511 kts 65°
2026-04-25 00:46 -43.25303 132.15201 39084 ft 510 kts 65°
2026-04-25 00:47 -43.20555 132.28326 39082 ft 511 kts 64°
2026-04-25 00:47 -43.17403 132.37006 39082 ft 511 kts 64°
2026-04-25 00:48 -43.14217 132.45750 39087 ft 511 kts 64°
2026-04-25 00:48 -43.11060 132.54391 39088 ft 511 kts 64°
2026-04-25 00:49 -43.07862 132.63116 39088 ft 512 kts 63°
2026-04-25 00:49 -43.04679 132.71771 39081 ft 512 kts 63°
2026-04-25 00:50 -43.01467 132.80479 39087 ft 512 kts 63°
2026-04-25 00:50 -42.98262 132.89142 39081 ft 512 kts 63°
2026-04-25 00:51 -42.95044 132.97813 39087 ft 511 kts 63°
2026-04-25 00:51 -42.91828 133.06450 39087 ft 511 kts 62°
2026-04-25 00:52 -42.88615 133.15056 39089 ft 511 kts 62°
2026-04-25 00:52 -42.85377 133.23699 39083 ft 510 kts 62°
2026-04-25 00:53 -42.82156 133.32273 39083 ft 510 kts 62°
2026-04-25 00:53 -42.78908 133.40891 39081 ft 510 kts 62°
2026-04-25 00:54 -42.76204 133.48047 39085 ft 510 kts 62°
2026-04-25 00:54 -42.72952 133.56630 39084 ft 511 kts 62°
2026-04-25 00:55 -42.69148 133.66636 39079 ft 511 kts 61°
2026-04-25 00:55 -42.66423 133.73781 39088 ft 512 kts 61°
2026-04-25 00:56 -42.63146 133.82353 39084 ft 510 kts 61°
2026-04-25 00:56 -42.59345 133.92261 39085 ft 510 kts 61°
2026-04-25 00:57 -42.56592 133.99416 39081 ft 509 kts 60°
2026-04-25 00:57 -42.53323 134.07889 39084 ft 509 kts 60°
2026-04-25 00:58 -42.50024 134.16415 39085 ft 509 kts 60°
2026-04-25 00:58 -42.46732 134.24896 39085 ft 510 kts 60°
2026-04-25 00:59 -42.43442 134.33350 39087 ft 510 kts 60°
2026-04-25 00:59 -42.40125 134.41846 39089 ft 510 kts 59°
2026-04-25 01:00 -42.36793 134.50355 39087 ft 511 kts 59°
2026-04-25 01:00 -42.33462 134.58837 39089 ft 511 kts 59°
2026-04-25 01:01 -42.30130 134.67298 39094 ft 511 kts 59°
2026-04-25 01:01 -42.26793 134.75745 39092 ft 511 kts 59°
2026-04-25 01:02 -42.23430 134.84235 39091 ft 511 kts 58°
2026-04-25 01:02 -42.20083 134.92658 39090 ft 511 kts 58°
2026-04-25 01:03 -42.16720 135.01097 39097 ft 512 kts 58°
2026-04-25 01:03 -42.13335 135.09567 39097 ft 512 kts 58°
2026-04-25 01:04 -42.09969 135.17966 39098 ft 512 kts 58°
2026-04-25 01:04 -42.06572 135.26418 39095 ft 511 kts 57°
2026-04-25 01:05 -42.03207 135.34766 39095 ft 510 kts 57°
2026-04-25 01:05 -41.99826 135.43129 39095 ft 510 kts 57°
2026-04-25 01:06 -41.96405 135.51566 39101 ft 510 kts 57°
2026-04-25 01:06 -41.93012 135.59910 39096 ft 510 kts 57°
2026-04-25 01:07 -41.89625 135.68219 39098 ft 510 kts 56°
2026-04-25 01:07 -41.86206 135.76579 39097 ft 509 kts 56°
2026-04-25 01:08 -41.82801 135.84883 39094 ft 509 kts 56°
2026-04-25 01:08 -41.79370 135.93228 39093 ft 509 kts 56°
2026-04-25 01:09 -41.75960 136.01497 39096 ft 509 kts 56°
2026-04-25 01:09 -41.72541 136.09763 39099 ft 509 kts 55°
2026-04-25 01:10 -41.69114 136.18027 39094 ft 509 kts 55°
2026-04-25 01:10 -41.65658 136.26337 39097 ft 509 kts 55°
2026-04-25 01:11 -41.62221 136.34579 39094 ft 509 kts 55°
2026-04-25 01:11 -41.58773 136.42825 39098 ft 510 kts 54°
2026-04-25 01:12 -41.55299 136.51108 39099 ft 510 kts 54°
2026-04-25 01:12 -41.51843 136.59327 39093 ft 510 kts 54°
2026-04-25 01:13 -41.48351 136.67607 39094 ft 510 kts 54°
2026-04-25 01:13 -41.44882 136.75813 39093 ft 510 kts 54°
2026-04-25 01:14 -41.41402 136.84020 39090 ft 510 kts 53°
2026-04-25 01:14 -41.37894 136.92271 39095 ft 510 kts 53°
2026-04-25 01:15 -41.34403 137.00458 39093 ft 510 kts 53°
2026-04-25 01:15 -41.30898 137.08658 39086 ft 510 kts 53°
2026-04-25 01:16 -41.27400 137.16816 39095 ft 510 kts 53°
2026-04-25 01:16 -41.23869 137.25031 39090 ft 510 kts 53°
2026-04-25 01:17 -41.20341 137.33216 39101 ft 510 kts 52°
2026-04-25 01:17 -41.16821 137.41362 39090 ft 509 kts 52°
2026-04-25 01:18 -41.13301 137.49483 39087 ft 509 kts 52°
2026-04-25 01:18 -41.09768 137.57613 39094 ft 509 kts 52°
2026-04-25 01:19 -41.06220 137.65756 39095 ft 509 kts 52°
2026-04-25 01:19 -41.02686 137.73846 39092 ft 509 kts 52°
2026-04-25 01:20 -40.99156 137.81903 39096 ft 508 kts 52°
2026-04-25 01:20 -40.95594 137.90013 39098 ft 508 kts 52°
2026-04-25 01:21 -40.92033 137.98098 39097 ft 509 kts 52°
2026-04-25 01:21 -40.88483 138.06138 39098 ft 509 kts 52°
2026-04-25 01:22 -40.84912 138.14204 39101 ft 509 kts 51°
2026-04-25 01:22 -40.81322 138.22291 39102 ft 510 kts 51°
2026-04-25 01:23 -40.77738 138.30345 39103 ft 509 kts 51°
2026-04-25 01:23 -40.74152 138.38378 39113 ft 509 kts 51°
2026-04-25 01:24 -40.70534 138.46465 39109 ft 509 kts 51°
2026-04-25 01:24 -40.66942 138.54470 39111 ft 510 kts 51°
2026-04-25 01:25 -40.63341 138.62477 39112 ft 510 kts 51°
2026-04-25 01:25 -40.59708 138.70532 39117 ft 510 kts 51°
2026-04-25 01:26 -40.56100 138.78513 39116 ft 510 kts 51°
2026-04-25 01:26 -40.52481 138.86496 39118 ft 510 kts 51°
2026-04-25 01:27 -40.49391 138.93296 39123 ft 509 kts 52°
2026-04-25 01:27 -40.45791 139.01199 39131 ft 508 kts 52°
2026-04-25 01:28 -40.40336 139.13135 39127 ft 508 kts 52°
2026-04-25 01:28 -40.36688 139.21093 39133 ft 507 kts 52°
2026-04-25 01:29 -40.34881 139.25026 39245 ft 506 kts 52°
2026-04-25 01:29 -40.33060 139.28986 39468 ft 505 kts 52°
2026-04-25 01:29 -40.31259 139.32896 39625 ft 505 kts 52°
2026-04-25 01:29 -40.29445 139.36830 39791 ft 505 kts 52°
2026-04-25 01:30 -40.27618 139.40787 39947 ft 505 kts 52°
2026-04-25 01:30 -40.25818 139.44681 40103 ft 505 kts 52°
2026-04-25 01:30 -40.23989 139.48633 40245 ft 505 kts 52°
2026-04-25 01:30 -40.22162 139.52574 40405 ft 505 kts 52°
2026-04-25 01:31 -40.20354 139.56470 40550 ft 505 kts 52°
2026-04-25 01:31 -40.18525 139.60407 40706 ft 505 kts 52°
2026-04-25 01:31 -40.16692 139.64348 40850 ft 505 kts 52°
2026-04-25 01:31 -40.14884 139.68230 40992 ft 505 kts 52°
2026-04-25 01:32 -40.13045 139.72171 41139 ft 505 kts 52°
2026-04-25 01:32 -40.11231 139.76054 41154 ft 508 kts 52°
2026-04-25 01:32 -40.07543 139.83943 41160 ft 505 kts 52°
2026-04-25 01:33 -40.03897 139.91713 41156 ft 504 kts 52°
2026-04-25 01:33 -40.00218 139.99537 41159 ft 504 kts 52°
2026-04-25 01:34 -39.96700 140.07417 41171 ft 504 kts 53°
2026-04-25 01:34 -39.93658 140.14101 41166 ft 505 kts 54°
2026-04-25 01:35 -39.90149 140.21977 41166 ft 504 kts 53°
2026-04-25 01:35 -39.86569 140.29869 41167 ft 505 kts 53°
2026-04-25 01:36 -39.83037 140.37708 41168 ft 505 kts 53°
2026-04-25 01:36 -39.79474 140.45554 41170 ft 504 kts 53°
2026-04-25 01:37 -39.75904 140.53418 41176 ft 504 kts 53°
2026-04-25 01:37 -39.72331 140.61260 41177 ft 504 kts 53°
2026-04-25 01:38 -39.68760 140.69079 41179 ft 504 kts 53°
2026-04-25 01:38 -39.65191 140.76872 41186 ft 505 kts 53°
2026-04-25 01:39 -39.61611 140.84675 41187 ft 503 kts 53°
2026-04-25 01:39 -39.58021 140.92476 41183 ft 503 kts 53°
2026-04-25 01:40 -39.54448 141.00220 41183 ft 503 kts 53°
2026-04-25 01:40 -39.50856 141.07990 41192 ft 503 kts 53°
2026-04-25 01:41 -39.47244 141.15782 41190 ft 504 kts 53°
2026-04-25 01:41 -39.43626 141.23568 41210 ft 504 kts 53°
2026-04-25 01:42 -39.40017 141.31314 41211 ft 504 kts 53°
2026-04-25 01:42 -39.36405 141.39049 41207 ft 504 kts 53°
2026-04-25 01:43 -39.32791 141.46769 41206 ft 502 kts 53°
2026-04-25 01:43 -39.29171 141.54482 41206 ft 503 kts 53°
2026-04-25 01:44 -39.25532 141.62218 41209 ft 503 kts 53°
2026-04-25 01:44 -39.21923 141.69872 41209 ft 502 kts 53°
2026-04-25 01:45 -39.18277 141.77583 41215 ft 503 kts 53°
2026-04-25 01:45 -39.14638 141.85262 41217 ft 503 kts 54°
2026-04-25 01:46 -39.10968 141.92988 41221 ft 504 kts 54°
2026-04-25 01:46 -39.07317 142.00656 41225 ft 504 kts 54°
2026-04-25 01:47 -39.03657 142.08324 41223 ft 504 kts 54°
2026-04-25 01:47 -38.99968 142.16034 41231 ft 504 kts 54°
2026-04-25 01:48 -38.96307 142.23666 41229 ft 504 kts 54°
2026-04-25 01:48 -38.92618 142.31340 41231 ft 503 kts 54°
2026-04-25 01:49 -38.88939 142.38971 41234 ft 504 kts 54°
2026-04-25 01:49 -38.85234 142.46642 41234 ft 505 kts 54°
2026-04-25 01:50 -38.81532 142.54288 41236 ft 505 kts 54°
2026-04-25 01:50 -38.77838 142.61897 41240 ft 505 kts 54°
2026-04-25 01:51 -38.74116 142.69547 41243 ft 504 kts 54°
2026-04-25 01:51 -38.70403 142.77158 41247 ft 505 kts 54°
2026-04-25 01:52 -38.66670 142.84797 41252 ft 506 kts 54°
2026-04-25 01:52 -38.62945 142.92397 41252 ft 505 kts 54°
2026-04-25 01:53 -38.59220 142.99982 41263 ft 505 kts 54°
2026-04-25 01:53 -38.55458 143.07621 41265 ft 506 kts 54°
2026-04-25 01:54 -38.52349 143.13924 41269 ft 507 kts 54°
2026-04-25 01:54 -38.48570 143.21565 41271 ft 507 kts 54°
2026-04-25 01:55 -38.44808 143.29155 41282 ft 507 kts 54°
2026-04-25 01:55 -38.41044 143.36732 41286 ft 507 kts 54°
2026-04-25 01:56 -38.37278 143.44294 41287 ft 507 kts 54°
2026-04-25 01:56 -38.33481 143.51901 41296 ft 507 kts 54°
2026-04-25 01:57 -38.27802 143.63247 41299 ft 507 kts 54°
2026-04-25 01:58 -38.23994 143.70832 41301 ft 507 kts 54°
2026-04-25 01:58 -38.20210 143.78352 41301 ft 506 kts 54°
2026-04-25 01:59 -38.16424 143.85859 41302 ft 506 kts 54°
2026-04-25 01:59 -38.12608 143.93406 41303 ft 506 kts 54°
2026-04-25 02:00 -38.08824 144.00875 41302 ft 506 kts 54°
2026-04-25 02:00 -38.05013 144.08378 41315 ft 505 kts 54°
2026-04-25 02:01 -38.01214 144.15841 41321 ft 505 kts 54°
2026-04-25 02:01 -37.97398 144.23321 41330 ft 504 kts 54°
2026-04-25 02:02 -37.93573 144.30800 41335 ft 503 kts 54°
2026-04-25 02:02 -37.89775 144.38211 41338 ft 502 kts 54°
2026-04-25 02:03 -37.85972 144.45614 41344 ft 503 kts 54°
2026-04-25 02:03 -37.82174 144.52992 41351 ft 503 kts 54°
2026-04-25 02:04 -37.78356 144.60391 41364 ft 502 kts 54°
2026-04-25 02:04 -37.74529 144.67792 41364 ft 501 kts 54°
2026-04-25 02:05 -37.70731 144.75120 41364 ft 501 kts 54°
2026-04-25 02:05 -37.66886 144.82492 41373 ft 500 kts 51°
2026-04-25 02:05 -37.64638 144.85750 41403 ft 495 kts 39°
2026-04-25 02:06 -37.62069 144.88664 41375 ft 496 kts 39°
2026-04-25 02:06 -37.56913 144.94436 41384 ft 497 kts 39°
2026-04-25 02:07 -37.51798 145.00199 41379 ft 496 kts 39°
2026-04-25 02:07 -37.46653 145.05957 41378 ft 496 kts 39°
2026-04-25 02:08 -37.41491 145.11737 41377 ft 497 kts 39°
2026-04-25 02:08 -37.36353 145.17473 41376 ft 495 kts 39°
2026-04-25 02:09 -37.31192 145.23226 41372 ft 494 kts 39°
2026-04-25 02:09 -37.26065 145.28930 41373 ft 495 kts 39°
2026-04-25 02:10 -37.20900 145.34666 41374 ft 494 kts 39°
2026-04-25 02:10 -37.15905 145.40625 41409 ft 496 kts 52°
2026-04-25 02:11 -37.11866 145.47625 41397 ft 499 kts 53°
2026-04-25 02:11 -37.07807 145.54719 41386 ft 499 kts 52°
2026-04-25 02:12 -37.03764 145.61726 41395 ft 498 kts 53°
2026-04-25 02:12 -36.99727 145.68742 41399 ft 498 kts 53°
2026-04-25 02:13 -36.95673 145.75749 41400 ft 498 kts 53°
2026-04-25 02:13 -36.91602 145.82787 41403 ft 498 kts 53°
2026-04-25 02:14 -36.87541 145.89784 41400 ft 497 kts 53°
2026-04-25 02:14 -36.83490 145.96754 41404 ft 497 kts 53°
2026-04-25 02:15 -36.79406 146.03761 41410 ft 497 kts 53°
2026-04-25 02:15 -36.75361 146.10692 41409 ft 497 kts 53°
2026-04-25 02:16 -36.71287 146.17654 41412 ft 497 kts 53°
2026-04-25 02:16 -36.67193 146.24639 41409 ft 497 kts 53°
2026-04-25 02:17 -36.63130 146.31557 41410 ft 496 kts 53°
2026-04-25 02:17 -36.59040 146.38504 41409 ft 496 kts 53°
2026-04-25 02:18 -36.54980 146.45389 41406 ft 495 kts 53°
2026-04-25 02:18 -36.52960 146.48808 41393 ft 482 kts 53°
2026-04-25 02:18 -36.51015 146.52099 41391 ft 469 kts 53°
2026-04-25 02:18 -36.49105 146.55327 41386 ft 456 kts 53°
2026-04-25 02:19 -36.47246 146.58463 41386 ft 443 kts 53°
2026-04-25 02:19 -36.45445 146.61501 41380 ft 431 kts 53°
2026-04-25 02:19 -36.43687 146.64464 41383 ft 420 kts 53°
2026-04-25 02:20 -36.40271 146.70211 41398 ft 416 kts 53°
2026-04-25 02:20 -36.36809 146.76027 41407 ft 426 kts 53°
2026-04-25 02:21 -36.33258 146.81983 41419 ft 429 kts 53°
2026-04-25 02:21 -36.29721 146.87904 41417 ft 428 kts 53°
2026-04-25 02:22 -36.26167 146.93845 41420 ft 428 kts 53°
2026-04-25 02:22 -36.22637 146.99735 41423 ft 428 kts 53°
2026-04-25 02:23 -36.19071 147.05674 41421 ft 428 kts 53°
2026-04-25 02:23 -36.15522 147.11574 41420 ft 428 kts 53°
2026-04-25 02:24 -36.11967 147.17473 41423 ft 428 kts 53°
2026-04-25 02:24 -36.08416 147.23357 41419 ft 428 kts 53°
2026-04-25 02:25 -36.04862 147.29235 41419 ft 428 kts 53°
2026-04-25 02:25 -36.01280 147.35148 41423 ft 428 kts 53°
2026-04-25 02:26 -35.97722 147.41013 41419 ft 427 kts 53°
2026-04-25 02:26 -35.94169 147.46860 41417 ft 427 kts 53°
2026-04-25 02:27 -35.90598 147.52725 41417 ft 428 kts 53°
2026-04-25 02:27 -35.87024 147.58586 41419 ft 428 kts 53°
2026-04-25 02:28 -35.83436 147.64461 41415 ft 428 kts 53°
2026-04-25 02:28 -35.79858 147.70307 41417 ft 428 kts 53°
2026-04-25 02:29 -35.76277 147.76149 41413 ft 428 kts 53°
2026-04-25 02:29 -35.72677 147.82013 41418 ft 428 kts 53°
2026-04-25 02:30 -35.69103 147.87825 41414 ft 427 kts 53°
2026-04-25 02:30 -35.65509 147.93659 41410 ft 426 kts 53°
2026-04-25 02:31 -35.61949 147.99428 41410 ft 426 kts 53°
2026-04-25 02:31 -35.58364 148.05228 41409 ft 426 kts 53°
2026-04-25 02:32 -35.54765 148.11041 41411 ft 426 kts 53°
2026-04-25 02:32 -35.51169 148.16840 41413 ft 427 kts 53°
2026-04-25 02:33 -35.48113 148.21760 41417 ft 427 kts 53°
2026-04-25 02:33 -35.44503 148.27563 41412 ft 428 kts 53°
2026-04-25 02:34 -35.40903 148.33340 41416 ft 428 kts 53°
2026-04-25 02:34 -35.37290 148.39129 41416 ft 428 kts 53°
2026-04-25 02:35 -35.33663 148.44928 41411 ft 428 kts 53°
2026-04-25 02:35 -35.30663 148.49720 41411 ft 428 kts 53°
2026-04-25 02:36 -35.27032 148.55508 41407 ft 427 kts 53°
2026-04-25 02:36 -35.23414 148.61269 41411 ft 427 kts 53°
2026-04-25 02:37 -35.19801 148.67011 41411 ft 428 kts 53°
2026-04-25 02:37 -35.16193 148.72735 41411 ft 428 kts 53°
2026-04-25 02:38 -35.12539 148.78524 41410 ft 428 kts 53°
2026-04-25 02:38 -35.08899 148.84279 41111 ft 428 kts 53°
2026-04-25 02:38 -35.07026 148.87241 40197 ft 440 kts 54°
2026-04-25 02:39 -35.05166 148.90176 39946 ft 448 kts 54°
2026-04-25 02:39 -35.03209 148.93263 39398 ft 468 kts 54°
2026-04-25 02:39 -35.01182 148.96458 38742 ft 486 kts 54°
2026-04-25 02:39 -34.99130 148.99685 38135 ft 486 kts 53°
2026-04-25 02:40 -34.97050 149.02951 37520 ft 484 kts 53°
2026-04-25 02:40 -34.94981 149.06203 36923 ft 482 kts 53°
2026-04-25 02:40 -34.92948 149.09396 36341 ft 480 kts 53°
2026-04-25 02:40 -34.90916 149.12584 35765 ft 477 kts 53°
2026-04-25 02:41 -34.88877 149.15777 35175 ft 475 kts 53°
2026-04-25 02:41 -34.86846 149.18955 34613 ft 473 kts 53°
2026-04-25 02:41 -34.84829 149.22111 33995 ft 471 kts 53°
2026-04-25 02:41 -34.82820 149.25249 33426 ft 467 kts 53°
2026-04-25 02:42 -34.80854 149.28318 32874 ft 463 kts 53°
2026-04-25 02:42 -34.78895 149.31373 32325 ft 459 kts 53°
2026-04-25 02:42 -34.76911 149.34467 31768 ft 455 kts 53°
2026-04-25 02:42 -34.74991 149.37457 31231 ft 452 kts 54°
2026-04-25 02:43 -34.73283 149.40639 30732 ft 444 kts 65°
2026-04-25 02:43 -34.71844 149.43964 30138 ft 441 kts 64°
2026-04-25 02:43 -34.70433 149.47191 29621 ft 431 kts 64°
2026-04-25 02:43 -34.69040 149.50381 29118 ft 422 kts 64°
2026-04-25 02:44 -34.67679 149.53505 28623 ft 413 kts 64°
2026-04-25 02:44 -34.66355 149.56539 28148 ft 404 kts 64°
2026-04-25 02:44 -34.65043 149.59538 27683 ft 398 kts 64°
2026-04-25 02:44 -34.63765 149.62457 27219 ft 394 kts 64°
2026-04-25 02:45 -34.62476 149.65402 26764 ft 391 kts 64°
2026-04-25 02:45 -34.61204 149.68306 26318 ft 387 kts 64°
2026-04-25 02:45 -34.59958 149.71146 25872 ft 384 kts 63°
2026-04-25 02:45 -34.58701 149.74008 25425 ft 381 kts 63°
2026-04-25 02:46 -34.57453 149.76846 24997 ft 377 kts 63°
2026-04-25 02:46 -34.56232 149.79624 24561 ft 375 kts 63°
2026-04-25 02:46 -34.55004 149.82415 24129 ft 371 kts 63°
2026-04-25 02:46 -34.53805 149.85136 23679 ft 368 kts 63°
2026-04-25 02:47 -34.52600 149.87870 23246 ft 363 kts 63°
2026-04-25 02:47 -34.51406 149.90578 22827 ft 361 kts 63°
2026-04-25 02:47 -34.50230 149.93242 22415 ft 361 kts 63°
2026-04-25 02:47 -34.49043 149.95928 22002 ft 359 kts 63°
2026-04-25 02:48 -34.48259 149.97699 21732 ft 356 kts 63°
2026-04-25 02:48 -34.46715 150.01186 21196 ft 350 kts 63°
2026-04-25 02:48 -34.45562 150.03790 20801 ft 350 kts 63°
2026-04-25 02:48 -34.44425 150.06357 20418 ft 349 kts 63°
2026-04-25 02:49 -34.43658 150.08084 20146 ft 347 kts 63°
2026-04-25 02:49 -34.42522 150.10644 19755 ft 342 kts 63°
2026-04-25 02:49 -34.41399 150.13172 19367 ft 339 kts 63°
2026-04-25 02:49 -34.40285 150.15678 18980 ft 340 kts 63°
2026-04-25 02:50 -34.39165 150.18198 18590 ft 338 kts 62°
2026-04-25 02:50 -34.38055 150.20688 18178 ft 332 kts 63°
2026-04-25 02:50 -34.36962 150.23141 17802 ft 330 kts 62°
2026-04-25 02:50 -34.35883 150.25564 17439 ft 331 kts 62°
2026-04-25 02:51 -34.34790 150.28015 17065 ft 328 kts 62°
2026-04-25 02:51 -34.34055 150.29661 16803 ft 324 kts 62°
2026-04-25 02:51 -34.32979 150.32068 16449 ft 324 kts 62°
2026-04-25 02:51 -34.31909 150.34463 16086 ft 325 kts 62°
2026-04-25 02:52 -34.30842 150.36850 15725 ft 320 kts 62°
2026-04-25 02:52 -34.29798 150.39183 15539 ft 318 kts 62°
2026-04-25 02:52 -34.28728 150.41571 15221 ft 323 kts 62°
2026-04-25 02:52 -34.27678 150.43915 14865 ft 317 kts 62°
2026-04-25 02:53 -34.26637 150.46244 14512 ft 316 kts 62°
2026-04-25 02:53 -34.25593 150.48587 14155 ft 317 kts 62°
2026-04-25 02:53 -34.24539 150.50941 13773 ft 314 kts 62°
2026-04-25 02:53 -34.23522 150.53213 13422 ft 311 kts 62°
2026-04-25 02:54 -34.22482 150.55534 13073 ft 313 kts 62°
2026-04-25 02:54 -34.21452 150.57833 12724 ft 312 kts 62°
2026-04-25 02:54 -34.20426 150.60120 12368 ft 306 kts 62°
2026-04-25 02:54 -34.19402 150.62402 12021 ft 309 kts 62°
2026-04-25 02:55 -34.18384 150.64668 11676 ft 309 kts 62°
2026-04-25 02:55 -34.17352 150.66965 11323 ft 308 kts 62°
2026-04-25 02:55 -34.16348 150.69198 10782 ft 308 kts 62°
2026-04-25 02:55 -34.15335 150.71449 10479 ft 299 kts 62°
2026-04-25 02:56 -34.14378 150.73570 10267 ft 280 kts 62°
2026-04-25 02:56 -34.13451 150.75632 9920 ft 275 kts 62°
2026-04-25 02:56 -34.12534 150.77668 9636 ft 277 kts 62°
2026-04-25 02:56 -34.11614 150.79705 9356 ft 276 kts 62°
2026-04-25 02:57 -34.10695 150.81740 9084 ft 276 kts 62°
2026-04-25 02:57 -34.09791 150.83743 8829 ft 271 kts 62°
2026-04-25 02:57 -34.08885 150.85759 8621 ft 272 kts 62°
2026-04-25 02:57 -34.08019 150.87687 8411 ft 272 kts 62°
2026-04-25 02:58 -34.07121 150.89680 8200 ft 272 kts 61°
2026-04-25 02:58 -34.06420 150.91235 8036 ft 271 kts 61°
2026-04-25 02:58 -34.05528 150.93213 7807 ft 270 kts 61°
2026-04-25 02:58 -34.04633 150.95197 7603 ft 269 kts 61°
2026-04-25 02:59 -34.03749 150.97158 7387 ft 268 kts 61°
2026-04-25 02:59 -34.03135 150.99271 7160 ft 268 kts 87°
2026-04-25 02:59 -34.03406 151.01467 6960 ft 268 kts 114°
2026-04-25 02:59 -34.04465 151.03276 6748 ft 267 kts 132°
2026-04-25 03:00 -34.05751 151.04924 6518 ft 268 kts 134°
2026-04-25 03:00 -34.07046 151.06511 6279 ft 268 kts 134°
2026-04-25 03:00 -34.08547 151.07806 5955 ft 262 kts 161°
2026-04-25 03:00 -34.10264 151.08334 5653 ft 252 kts 167°
2026-04-25 03:01 -34.11979 151.08776 5334 ft 246 kts 168°
2026-04-25 03:01 -34.13642 151.09187 5024 ft 245 kts 168°
2026-04-25 03:01 -34.15295 151.09612 4708 ft 244 kts 167°
2026-04-25 03:01 -34.16958 151.10048 4387 ft 243 kts 167°
2026-04-25 03:02 -34.18617 151.10479 4093 ft 242 kts 168°
2026-04-25 03:02 -34.20247 151.10903 3795 ft 240 kts 167°
2026-04-25 03:02 -34.21328 151.11352 3513 ft 236 kts 146°
2026-04-25 03:02 -34.22286 151.12826 3230 ft 221 kts 105°
2026-04-25 03:03 -34.22287 151.14589 2963 ft 206 kts 76°
2026-04-25 03:03 -34.21941 151.16274 2992 ft 207 kts 73°
2026-04-25 03:03 -34.21583 151.17943 2994 ft 205 kts 73°
2026-04-25 03:03 -34.21223 151.19606 2997 ft 206 kts 73°
2026-04-25 03:04 -34.20688 151.21206 2947 ft 204 kts 49°
2026-04-25 03:04 -34.19504 151.22010 2959 ft 194 kts 16°
2026-04-25 03:04 -34.18226 151.22393 2982 ft 188 kts 13°
2026-04-25 03:05 -34.15706 151.22931 2969 ft 170 kts
2026-04-25 03:05 -34.14589 151.22755 2973 ft 160 kts 349°
2026-04-25 03:05 -34.13485 151.22508 2972 ft 160 kts 349°
2026-04-25 03:05 -34.12402 151.22231 2976 ft 160 kts 348°
2026-04-25 03:06 -34.11307 151.21947 2972 ft 159 kts 348°
2026-04-25 03:06 -34.10213 151.21662 2793 ft 162 kts 348°
2026-04-25 03:06 -34.09121 151.21377 2568 ft 160 kts 348°
2026-04-25 03:06 -34.08037 151.21095 2372 ft 158 kts 348°
2026-04-25 03:07 -34.06963 151.20814 2160 ft 160 kts 348°
2026-04-25 03:07 -34.05882 151.20532 1936 ft 154 kts 348°
2026-04-25 03:07 -34.04888 151.20272 1751 ft 144 kts 348°
2026-04-25 03:07 -34.03891 151.20012 1553 ft 145 kts 348°
2026-04-25 03:08 -34.02925 151.19759 1371 ft 143 kts 349°
2026-04-25 03:08 -34.01946 151.19503 1177 ft 142 kts 349°
2026-04-25 03:08 -34.00995 151.19256 982 ft 143 kts 349°
2026-04-25 03:10 -34.00930 151.19240 974 ft 143 kts 349°
2026-04-25 03:10 -33.99904 151.18973 775 ft 143 kts 349°
2026-04-25 03:10 -33.98930 151.18719 586 ft 143 kts 349°
2026-04-25 03:11 -33.97989 151.18477 380 ft 141 kts 347°
2026-04-25 03:11 -33.97038 151.18223 165 ft 140 kts 349°
2026-04-25 03:11 -33.96105 151.17982 33 ft 129 kts 349°
2026-04-25 03:11 -33.95390 151.17801 34 ft 78 kts 348°
2026-04-25 03:12 -33.94942 151.17684 34 ft 59 kts 347°
2026-04-25 03:12 -33.94592 151.17575 35 ft 41 kts 339°
2026-04-25 03:12 -33.94406 151.17440 35 ft 14 kts 318°
2026-04-25 03:12 -33.94355 151.17385 34 ft 7 kts 318°
2026-04-25 03:13 -33.94325 151.17352 36 ft 6 kts 317°
2026-04-25 03:13 -33.94287 151.17314 35 ft 8 kts 324°
2026-04-25 03:13 -33.94230 151.17286 34 ft 10 kts 347°
2026-04-25 03:13 -33.94152 151.17271 34 ft 12 kts 351°
2026-04-25 03:14 -33.94064 151.17250 35 ft 13 kts 347°
2026-04-25 03:14 -33.93967 151.17223 34 ft 15 kts 347°
2026-04-25 03:14 -33.93858 151.17195 34 ft 17 kts 347°
2026-04-25 03:14 -33.93739 151.17162 34 ft 18 kts 347°
2026-04-25 03:15 -33.93611 151.17129 35 ft 19 kts 348°
2026-04-25 03:15 -33.93524 151.17107 35 ft 12 kts 343°
2026-04-25 03:15 -33.93500 151.17044 35 ft 8 kts 259°
2026-04-25 03:15 -33.93515 151.16970 35 ft 10 kts 258°
2026-04-25 03:16 -33.93538 151.16916 35 ft 4 kts 202°
2026-04-25 03:16 -33.93556 151.16917 35 ft 2 kts 174°
2026-04-25 03:16 -33.93574 151.16919 35 ft 3 kts 177°
2026-04-25 03:16 -33.93596 151.16920 35 ft 4 kts 178°
2026-04-25 03:17 -33.93624 151.16921 35 ft 2 kts 178°